Observation data for Fort McKavett on 12/08/2018      Previous  Date       Current Mesonet Observations  Soil Data  Daily Summary Page  Observations in Plain Language
KMC1 080600Z 36005KT 03/03 A302 RMK A01 T00330032  RH  100%=      5-min Rain = 0
KMC1 080601Z 01006KT 03/03 A302 RMK A01 T00330032  RH  100%=      5-min Rain = 0
KMC1 080602Z 01006KT 03/03 A302 RMK A01 T00330032  RH  100%=      5-min Rain = 0
KMC1 080603Z 02007KT 03/03 A302 RMK A01 T00330032  RH  099%=      5-min Rain = 0
KMC1 080604Z 02006KT 03/03 A302 RMK A01 T00330032  RH  100%=      5-min Rain = 0
KMC1 080605Z 03006KT 03/03 A302 RMK A01 T00330032  RH  099%=      5-min Rain = 0
KMC1 080606Z 03007KT 03/03 A302 RMK A01 T00320032  RH  099%=      5-min Rain = 0
KMC1 080607Z 02005KT 03/03 A302 RMK A01 T00320031  RH  099%=      5-min Rain = 0
KMC1 080608Z 02007KT 03/03 A3019 RMK A01 T00320031  RH  100%=      5-min Rain = 0
KMC1 080609Z 02006KT 03/03 A3019 RMK A01 T00320031  RH  100%=      5-min Rain = 0
KMC1 080610Z 02005KT 03/03 A3019 RMK A01 T00320031  RH  100%=      5-min Rain = 0
KMC1 080611Z 03006KT 03/03 A3019 RMK A01 T00320032  RH  100%=      5-min Rain = 0
KMC1 080612Z 02006KT 03/03 A3019 RMK A01 T00320032  RH  100%=      5-min Rain = 0
KMC1 080613Z 03006KT 03/03 A3019 RMK A01 T00320032  RH  100%=      5-min Rain = 0
KMC1 080614Z 02006KT 03/03 A3018 RMK A01 T00320032  RH  100%=      5-min Rain = 0
KMC1 080615Z 02006KT 03/03 A3018 RMK A01 T00320032  RH  100%=      5-min Rain = 0
KMC1 080616Z 01005KT 03/03 A3018 RMK A01 T00320032  RH  100%=      5-min Rain = 0
KMC1 080617Z 01004KT 03/03 A3018 RMK A01 T00320032  RH  100%=      5-min Rain = 0
KMC1 080618Z 00005KT 03/03 A3018 RMK A01 T00330032  RH  100%=      5-min Rain = 0
KMC1 080619Z 00006KT 03/03 A3018 RMK A01 T00330033  RH  100%=      5-min Rain = 0
KMC1 080620Z 00005KT 03/03 A3018 RMK A01 T00330033  RH  100%=      5-min Rain = 0
KMC1 080621Z 36006KT 03/03 A3019 RMK A01 T00330033  RH  100%=      5-min Rain = 0
KMC1 080622Z 01006KT 03/03 A3019 RMK A01 T00330032  RH  100%=      5-min Rain = 0
KMC1 080623Z 01006KT 03/03 A3018 RMK A01 T00330032  RH  100%=      5-min Rain = 0
KMC1 080624Z 36006KT 03/03 A3018 RMK A01 T00330033  RH  100%=      5-min Rain = 0
KMC1 080625Z 01007KT 03/03 A3018 RMK A01 T00330033  RH  100%=      5-min Rain = 0
KMC1 080626Z 00008KT 03/03 A3019 RMK A01 T00330032  RH  100%=      5-min Rain = 0
KMC1 080627Z 01007KT 03/03 A3019 RMK A01 T00330032  RH  100%=      5-min Rain = 0
KMC1 080628Z 36007KT 03/03 A3019 RMK A01 T00320032  RH  100%=      5-min Rain = 0
KMC1 080629Z 36007KT 03/03 A3019 RMK A01 T00320032  RH  100%=      5-min Rain = 0
KMC1 080630Z 36008KT 03/03 A3019 RMK A01 T00320032  RH  100%=      5-min Rain = 0
KMC1 080631Z 00007KT 03/03 A3019 RMK A01 T00320032  RH  100%=      5-min Rain = 0
KMC1 080632Z 36007KT 03/03 A3019 RMK A01 T00320032  RH  100%=      5-min Rain = 0
KMC1 080633Z 35007KT 03/03 A3019 RMK A01 T00320032  RH  100%=      5-min Rain = 0
KMC1 080634Z 35007KT 03/03 A3019 RMK A01 T00320032  RH  100%=      5-min Rain = 0
KMC1 080635Z 00008KT 03/03 A3019 RMK A01 T00320032  RH  100%=      5-min Rain = 0
KMC1 080636Z 01007KT 03/03 A3019 RMK A01 T00320032  RH  100%=      5-min Rain = 0
KMC1 080637Z 00006KT 03/03 A3018 RMK A01 T00320032  RH  100%=      5-min Rain = 0
KMC1 080638Z 00007KT 03/03 A3018 RMK A01 T00320032  RH  100%=      5-min Rain = 0
KMC1 080639Z 01008KT 03/03 A3018 RMK A01 T00320032  RH  100%=      5-min Rain = 0
KMC1 080640Z 01009KT 03/03 A3018 RMK A01 T00320032  RH  100%=      5-min Rain = 0
KMC1 080641Z 36007KT 03/03 A3018 RMK A01 T00320032  RH  100%=      5-min Rain = 0
KMC1 080642Z 35009KT 03/03 A3018 RMK A01 T00320032  RH  100%=      5-min Rain = 0
KMC1 080643Z 36007KT 03/03 A3018 RMK A01 T00320032  RH  100%=      5-min Rain = 0
KMC1 080644Z 36009KT 03/03 A3018 RMK A01 T00320032  RH  100%=      5-min Rain = 0
KMC1 080645Z 00009KT 03/03 A3018 RMK A01 T00320032  RH  100%=      5-min Rain = 0
KMC1 080646Z 36007KT 03/03 A3018 RMK A01 T00320032  RH  100%=      5-min Rain = 0
KMC1 080647Z 00008KT 03/03 A3018 RMK A01 T00320032  RH  100%=      5-min Rain = 0
KMC1 080648Z 01007KT 03/03 A3018 RMK A01 T00320032  RH  100%=      5-min Rain = 0
KMC1 080649Z 02010KT 03/03 A3018 RMK A01 T00320032  RH  100%=      5-min Rain = 0
KMC1 080650Z 01009KT 03/03 A3018 RMK A01 T00310031  RH  100%=      5-min Rain = 0
KMC1 080651Z 01008KT 03/03 A3018 RMK A01 T00310031  RH  100%=      5-min Rain = 0
KMC1 080652Z 02006KT 03/03 A3018 RMK A01 T00310031  RH  100%=      5-min Rain = 0
KMC1 080653Z 01008KT 03/03 A3018 RMK A01 T00310031  RH  100%=      5-min Rain = 0
KMC1 080654Z 01006KT 03/03 A3017 RMK A01 T00310031  RH  100%=      5-min Rain = 0
KMC1 080655Z 01009KT 03/03 A3017 RMK A01 T00310031  RH  100%=      5-min Rain = 0
KMC1 080656Z 01008KT 03/03 A3017 RMK A01 T00310031  RH  100%=      5-min Rain = 0
KMC1 080657Z 01007KT 03/03 A3017 RMK A01 T00310031  RH  100%=      5-min Rain = 0
KMC1 080658Z 01011KT 03/03 A3017 RMK A01 T00310031  RH  100%=      5-min Rain = 0
KMC1 080659Z 02011KT 03/03 A3017 RMK A01 T00310031  RH  100%=      5-min Rain = 0
KMC1 080700Z 01009KT 03/03 A3017 RMK A01 T00310031  RH  100%=      5-min Rain = 0
KMC1 080701Z 01008KT 03/03 A3017 RMK A01 T00310031  RH  100%=      5-min Rain = 0
KMC1 080702Z 02007KT 03/03 A3017 RMK A01 T00310031  RH  100%=      5-min Rain = 0
KMC1 080703Z 01006KT 03/03 A3017 RMK A01 T00310031  RH  100%=      5-min Rain = 0
KMC1 080704Z 01006KT 03/03 A3017 RMK A01 T00310031  RH  100%=      5-min Rain = 0
KMC1 080705Z 02007KT 03/03 A3017 RMK A01 T00310031  RH  100%=      5-min Rain = 0
KMC1 080706Z 02007KT 03/03 A3017 RMK A01 T00310031  RH  100%=      5-min Rain = 0
KMC1 080707Z 02007KT 03/03 A3017 RMK A01 T00310031  RH  100%=      5-min Rain = 0
KMC1 080708Z 01008KT 03/03 A3017 RMK A01 T00310031  RH  100%=      5-min Rain = 0
KMC1 080709Z 01008KT 03/03 A3017 RMK A01 T00320032  RH  100%=      5-min Rain = 0
KMC1 080710Z 02007KT 03/03 A3017 RMK A01 T00310031  RH  100%=      5-min Rain = 0
KMC1 080711Z 02008KT 03/03 A3017 RMK A01 T00310031  RH  100%=      5-min Rain = 0
KMC1 080712Z 03007KT 03/03 A3017 RMK A01 T00320031  RH  100%=      5-min Rain = 0
KMC1 080713Z 02007KT 03/03 A3017 RMK A01 T00310031  RH  100%=      5-min Rain = 0
KMC1 080714Z 02008KT 03/03 A3017 RMK A01 T00310031  RH  100%=      5-min Rain = 0
KMC1 080715Z 01006KT 03/03 A3017 RMK A01 T00310031  RH  100%=      5-min Rain = 0
KMC1 080716Z 02008KT 03/03 A3017 RMK A01 T00320031  RH  100%=      5-min Rain = 0
KMC1 080717Z 02007KT 03/03 A3017 RMK A01 T00310031  RH  100%=      5-min Rain = 0
KMC1 080718Z 02006KT 03/03 A3017 RMK A01 T00310031  RH  100%=      5-min Rain = 0
KMC1 080719Z 01008KT 03/03 A3017 RMK A01 T00320032  RH  100%=      5-min Rain = 0
KMC1 080720Z 02008KT 03/03 A3017 RMK A01 T00320032  RH  100%=      5-min Rain = 0
KMC1 080721Z 02009KT 03/03 A3017 RMK A01 T00320032  RH  100%=      5-min Rain = 0
KMC1 080722Z 02006KT 03/03 A3017 RMK A01 T00320032  RH  100%=      5-min Rain = 0
KMC1 080723Z 01007KT 03/03 A3017 RMK A01 T00320032  RH  100%=      5-min Rain = 0
KMC1 080724Z 02007KT 03/03 A3017 RMK A01 T00320032  RH  100%=      5-min Rain = 0
KMC1 080725Z 02006KT 03/03 A3017 RMK A01 T00320032  RH  100%=      5-min Rain = 0
KMC1 080726Z 00006G11KT 03/03 A3017 RMK A01 T00320032  RH  100%=      5-min Rain = 0
KMC1 080727Z 01009KT 03/03 A3017 RMK A01 T00320032  RH  100%=      5-min Rain = 0
KMC1 080728Z 01007KT 03/03 A3017 RMK A01 T00320032  RH  100%=      5-min Rain = 0
KMC1 080729Z 01007KT 03/03 A3017 RMK A01 T00320032  RH  100%=      5-min Rain = 0
KMC1 080730Z 00007KT 03/03 A3017 RMK A01 T00320032  RH  100%=      5-min Rain = 0
KMC1 080731Z 00006KT 03/03 A3017 RMK A01 T00320031  RH  100%=      5-min Rain = 0
KMC1 080732Z 00006KT 03/03 A3018 RMK A01 T00320032  RH  100%=      5-min Rain = 0
KMC1 080733Z 00007KT 03/03 A3018 RMK A01 T00320032  RH  100%=      5-min Rain = 0
KMC1 080734Z 01006KT 03/03 A3018 RMK A01 T00320032  RH  100%=      5-min Rain = 0
KMC1 080735Z 01005KT 03/03 A3018 RMK A01 T00320032  RH  100%=      5-min Rain = 0
KMC1 080736Z 02006KT 03/03 A3018 RMK A01 T00320032  RH  100%=      5-min Rain = 0
KMC1 080737Z 02007KT 03/03 A3018 RMK A01 T00320031  RH  100%=      5-min Rain = 0
KMC1 080738Z 01007KT 03/03 A3018 RMK A01 T00320032  RH  100%=      5-min Rain = 0
KMC1 080739Z 02006KT 03/03 A3018 RMK A01 T00320032  RH  100%=      5-min Rain = 0
KMC1 080740Z 01006KT 03/03 A3018 RMK A01 T00320031  RH  100%=      5-min Rain = 0
KMC1 080741Z 01005KT 03/03 A3018 RMK A01 T00320032  RH  100%=      5-min Rain = 0
KMC1 080742Z 01006KT 03/03 A3018 RMK A01 T00320031  RH  100%=      5-min Rain = 0
KMC1 080743Z 01006KT 03/03 A3018 RMK A01 T00320032  RH  100%=      5-min Rain = 0
KMC1 080744Z 01005KT 03/03 A3017 RMK A01 T00320032  RH  100%=      5-min Rain = 0
KMC1 080745Z 00006KT 03/03 A3018 RMK A01 T00320032  RH  100%=      5-min Rain = 0
KMC1 080746Z 00008KT 03/03 A3018 RMK A01 T00320032  RH  100%=      5-min Rain = 0
KMC1 080747Z 00008KT 03/03 A3018 RMK A01 T00320032  RH  100%=      5-min Rain = 0
KMC1 080748Z 01007KT 03/03 A3018 RMK A01 T00320032  RH  100%=      5-min Rain = 0
KMC1 080749Z 00006KT 03/03 A3018 RMK A01 T00320032  RH  100%=      5-min Rain = 0
KMC1 080750Z 02006KT 03/03 A3018 RMK A01 T00320032  RH  100%=      5-min Rain = 0
KMC1 080751Z 36006KT 03/03 A3018 RMK A01 T00320032  RH  100%=      5-min Rain = 0
KMC1 080752Z 00008KT 03/03 A3018 RMK A01 T00320032  RH  100%=      5-min Rain = 0
KMC1 080753Z 36010KT 03/03 A3018 RMK A01 T00320032  RH  100%=      5-min Rain = 0
KMC1 080754Z 36010KT 03/03 A3018 RMK A01 T00310031  RH  100%=      5-min Rain = 0
KMC1 080755Z 01010KT 03/03 A3018 RMK A01 T00310031  RH  100%=      5-min Rain = 0
KMC1 080756Z 01009KT 03/03 A3018 RMK A01 T00310031  RH  100%=      5-min Rain = 0
KMC1 080757Z 02008KT 03/03 A3018 RMK A01 T00310031  RH  100%=      5-min Rain = 0
KMC1 080758Z 01007KT 03/03 A3018 RMK A01 T00310031  RH  100%=      5-min Rain = 0
KMC1 080759Z 01006KT 03/03 A3018 RMK A01 T00310031  RH  100%=      5-min Rain = 0
KMC1 080800Z 01006KT 03/03 A3018 RMK A01 T00310031  RH  100%=      5-min Rain = 0
KMC1 080801Z 01009KT 03/03 A3018 RMK A01 T00310031  RH  100%=      5-min Rain = 0
KMC1 080802Z 02007KT 03/03 A3018 RMK A01 T00310031  RH  100%=      5-min Rain = 0
KMC1 080803Z 01007KT 03/03 A3018 RMK A01 T00310031  RH  100%=      5-min Rain = 0
KMC1 080804Z 02006KT 03/03 A3018 RMK A01 T00310031  RH  100%=      5-min Rain = 0
KMC1 080805Z 02005KT 03/03 A3018 RMK A01 T00310031  RH  100%=      5-min Rain = 0
KMC1 080806Z 01007KT 03/03 A3017 RMK A01 T00310031  RH  100%=      5-min Rain = 0
KMC1 080807Z 02007KT 03/03 A3017 RMK A01 T00310031  RH  100%=      5-min Rain = 0
KMC1 080808Z 03008KT 03/03 A3017 RMK A01 T00310031  RH  100%=      5-min Rain = 0
KMC1 080809Z 02007KT 03/03 A3017 RMK A01 T00310031  RH  100%=      5-min Rain = 0
KMC1 080810Z 02006KT 03/03 A3017 RMK A01 T00310031  RH  100%=      5-min Rain = 0
KMC1 080811Z 02007KT 03/03 A3017 RMK A01 T00310031  RH  100%=      5-min Rain = 0
KMC1 080812Z 02008KT 03/03 A3017 RMK A01 T00310031  RH  100%=      5-min Rain = 0
KMC1 080813Z 01006KT 03/03 A3017 RMK A01 T00310031  RH  100%=      5-min Rain = 0
KMC1 080814Z 01005KT 03/03 A3016 RMK A01 T00300030  RH  100%=      5-min Rain = 0
KMC1 080815Z 02006KT 03/03 A3016 RMK A01 T00300030  RH  100%=      5-min Rain = 0
KMC1 080816Z 03006KT 03/03 A3016 RMK A01 T00300030  RH  100%=      5-min Rain = 0
KMC1 080817Z 02007KT 03/03 A3016 RMK A01 T00310031  RH  100%=      5-min Rain = 0
KMC1 080818Z 02009KT 03/03 A3016 RMK A01 T00300030  RH  100%=      5-min Rain = 0
KMC1 080819Z 02009KT 03/03 A3016 RMK A01 T00300030  RH  100%=      5-min Rain = 0
KMC1 080820Z 02009KT 03/03 A3016 RMK A01 T00300030  RH  100%=      5-min Rain = 0
KMC1 080821Z 02009KT 03/03 A3016 RMK A01 T00310031  RH  100%=      5-min Rain = 0
KMC1 080822Z 03008KT 03/03 A3016 RMK A01 T00310031  RH  100%=      5-min Rain = 0
KMC1 080823Z 02007KT 03/03 A3016 RMK A01 T00310031  RH  100%=      5-min Rain = 0
KMC1 080824Z 01005KT 03/03 A3016 RMK A01 T00300030  RH  100%=      5-min Rain = 0
KMC1 080825Z 01007KT 03/03 A3016 RMK A01 T00300030  RH  100%=      5-min Rain = 0
KMC1 080826Z 01008KT 03/03 A3016 RMK A01 T00300030  RH  100%=      5-min Rain = 0
KMC1 080827Z 01009KT 03/03 A3016 RMK A01 T00300030  RH  100%=      5-min Rain = 0
KMC1 080828Z 01008KT 03/03 A3016 RMK A01 T00300030  RH  100%=      5-min Rain = 0
KMC1 080829Z 01007KT 03/03 A3016 RMK A01 T00300030  RH  100%=      5-min Rain = 0
KMC1 080830Z 01010KT 03/03 A3016 RMK A01 T00300030  RH  100%=      5-min Rain = 0
KMC1 080831Z 00010G15KT 03/03 A3016 RMK A01 T00300029  RH  100%=      5-min Rain = 0
KMC1 080832Z 01008KT 03/03 A3016 RMK A01 T00290029  RH  100%=      5-min Rain = 0.01
KMC1 080833Z 01011KT 03/03 A3016 RMK A01 T00290029  RH  100%=      5-min Rain = 0
KMC1 080834Z 02010KT 03/03 A3016 RMK A01 T00300030  RH  100%=      5-min Rain = 0
KMC1 080835Z 02008KT 03/03 A3016 RMK A01 T00290029  RH  100%=      5-min Rain = 0
KMC1 080836Z 00008KT 03/03 A3016 RMK A01 T00290029  RH  100%=      5-min Rain = 0
KMC1 080837Z 02010KT 03/03 A3016 RMK A01 T00300029  RH  100%=      5-min Rain = 0
KMC1 080838Z 01008KT 03/03 A3016 RMK A01 T00300030  RH  100%=      5-min Rain = 0
KMC1 080839Z 01008KT 03/03 A3016 RMK A01 T00290029  RH  100%=      5-min Rain = 0
KMC1 080840Z 01006KT 03/03 A3016 RMK A01 T00300030  RH  100%=      5-min Rain = 0
KMC1 080841Z 02007KT 03/03 A3016 RMK A01 T00300030  RH  100%=      5-min Rain = 0
KMC1 080842Z 02007KT 03/03 A3015 RMK A01 T00300030  RH  100%=      5-min Rain = 0
KMC1 080843Z 02007KT 03/03 A3016 RMK A01 T00300029  RH  100%=      5-min Rain = 0
KMC1 080844Z 01007KT 03/03 A3016 RMK A01 T00300030  RH  100%=      5-min Rain = 0
KMC1 080845Z 02007KT 03/03 A3016 RMK A01 T00290029  RH  100%=      5-min Rain = 0
KMC1 080846Z 02008KT 03/03 A3016 RMK A01 T00290029  RH  100%=      5-min Rain = 0
KMC1 080847Z 02008KT 03/03 A3016 RMK A01 T00300030  RH  100%=      5-min Rain = 0
KMC1 080848Z 02008KT 03/03 A3016 RMK A01 T00290029  RH  100%=      5-min Rain = 0
KMC1 080849Z 02008KT 03/03 A3015 RMK A01 T00300029  RH  100%=      5-min Rain = 0
KMC1 080850Z 02007KT 03/03 A3015 RMK A01 T00290029  RH  100%=      5-min Rain = 0
KMC1 080851Z 02009KT 03/03 A3015 RMK A01 T00300030  RH  100%=      5-min Rain = 0
KMC1 080852Z 02008KT 03/03 A3015 RMK A01 T00300029  RH  100%=      5-min Rain = 0
KMC1 080853Z 01007KT 03/03 A3015 RMK A01 T00290029  RH  100%=      5-min Rain = 0
KMC1 080854Z 01007KT 03/03 A3015 RMK A01 T00290029  RH  100%=      5-min Rain = 0
KMC1 080855Z 01008KT 03/03 A3015 RMK A01 T00290029  RH  100%=      5-min Rain = 0
KMC1 080856Z 00006KT 03/03 A3015 RMK A01 T00300029  RH  100%=      5-min Rain = 0
KMC1 080857Z 00007KT 03/03 A3015 RMK A01 T00290029  RH  100%=      5-min Rain = 0
KMC1 080858Z 35006KT 03/03 A3015 RMK A01 T00290029  RH  100%=      5-min Rain = 0
KMC1 080859Z 35009KT 03/03 A3015 RMK A01 T00300029  RH  100%=      5-min Rain = 0
KMC1 080900Z 00010KT 03/03 A3016 RMK A01 T00290029  RH  100%=      5-min Rain = 0
KMC1 080901Z 00010KT 03/03 A3016 RMK A01 T00290029  RH  100%=      5-min Rain = 0
KMC1 080902Z 00008KT 03/03 A3016 RMK A01 T00290029  RH  100%=      5-min Rain = 0
KMC1 080903Z 35008KT 03/03 A3016 RMK A01 T00280028  RH  100%=      5-min Rain = 0
KMC1 080904Z 01007KT 03/03 A3016 RMK A01 T00280028  RH  100%=      5-min Rain = 0
KMC1 080905Z 02009KT 03/03 A3016 RMK A01 T00280028  RH  100%=      5-min Rain = 0
KMC1 080906Z 01008KT 03/03 A3016 RMK A01 T00280028  RH  100%=      5-min Rain = 0
KMC1 080907Z 01007KT 03/03 A3016 RMK A01 T00280028  RH  100%=      5-min Rain = 0
KMC1 080908Z 00007KT 03/03 A3016 RMK A01 T00280028  RH  100%=      5-min Rain = 0
KMC1 080909Z 01007KT 03/03 A3016 RMK A01 T00280028  RH  100%=      5-min Rain = 0
KMC1 080910Z 36007KT 03/03 A3016 RMK A01 T00280028  RH  100%=      5-min Rain = 0
KMC1 080911Z 35008KT 03/03 A3016 RMK A01 T00280028  RH  100%=      5-min Rain = 0
KMC1 080912Z 35008KT 03/03 A3016 RMK A01 T00280027  RH  100%=      5-min Rain = 0
KMC1 080913Z 36006KT 03/03 A3016 RMK A01 T00280027  RH  100%=      5-min Rain = 0
KMC1 080914Z 00006KT 03/03 A3016 RMK A01 T00270027  RH  100%=      5-min Rain = 0
KMC1 080915Z 00006KT 03/03 A3016 RMK A01 T00270027  RH  100%=      5-min Rain = 0
KMC1 080916Z 35006KT 03/03 A3016 RMK A01 T00270027  RH  100%=      5-min Rain = 0
KMC1 080917Z 36006KT 03/03 A3016 RMK A01 T00270027  RH  100%=      5-min Rain = 0
KMC1 080918Z 00006KT 03/03 A3016 RMK A01 T00280028  RH  100%=      5-min Rain = 0
KMC1 080919Z 00004KT 03/03 A3016 RMK A01 T00280027  RH  100%=      5-min Rain = 0
KMC1 080920Z 36007KT 03/03 A3016 RMK A01 T00280028  RH  100%=      5-min Rain = 0
KMC1 080921Z 00009KT 03/03 A3016 RMK A01 T00270027  RH  100%=      5-min Rain = 0
KMC1 080922Z 00009KT 03/03 A3016 RMK A01 T00280027  RH  100%=      5-min Rain = 0
KMC1 080923Z 00008KT 03/03 A3017 RMK A01 T00270027  RH  100%=      5-min Rain = 0
KMC1 080924Z 36009KT 03/03 A3017 RMK A01 T00270027  RH  100%=      5-min Rain = 0
KMC1 080925Z 36008KT 03/03 A3017 RMK A01 T00270027  RH  100%=      5-min Rain = 0
KMC1 080926Z 01009KT 03/03 A3017 RMK A01 T00270027  RH  100%=      5-min Rain = 0
KMC1 080927Z 00005KT 03/03 A3017 RMK A01 T00270027  RH  100%=      5-min Rain = 0
KMC1 080928Z 00005KT 03/03 A3017 RMK A01 T00270027  RH  100%=      5-min Rain = 0
KMC1 080929Z 35005KT 03/03 A3017 RMK A01 T00270027  RH  100%=      5-min Rain = 0
KMC1 080930Z 36005KT 03/03 A3017 RMK A01 T00270027  RH  100%=      5-min Rain = 0
KMC1 080931Z 36007KT 03/03 A3017 RMK A01 T00270027  RH  100%=      5-min Rain = 0
KMC1 080932Z 35007KT 03/03 A3017 RMK A01 T00270027  RH  100%=      5-min Rain = 0
KMC1 080933Z 00006KT 03/03 A3017 RMK A01 T00270027  RH  100%=      5-min Rain = 0
KMC1 080934Z 35005KT 03/03 A3017 RMK A01 T00270027  RH  100%=      5-min Rain = 0
KMC1 080935Z 35006KT 03/03 A3017 RMK A01 T00270027  RH  100%=      5-min Rain = 0
KMC1 080936Z 00006KT 03/03 A3017 RMK A01 T00270027  RH  100%=      5-min Rain = 0
KMC1 080937Z 00004KT 03/03 A3017 RMK A01 T00270027  RH  100%=      5-min Rain = 0
KMC1 080938Z 00005KT 03/03 A3017 RMK A01 T00270027  RH  100%=      5-min Rain = 0
KMC1 080939Z 00006KT 03/03 A3017 RMK A01 T00270027  RH  100%=      5-min Rain = 0
KMC1 080940Z 35005KT 03/03 A3017 RMK A01 T00270027  RH  100%=      5-min Rain = 0
KMC1 080941Z 35005KT 03/03 A3017 RMK A01 T00270027  RH  100%=      5-min Rain = 0
KMC1 080942Z 35005KT 03/03 A3017 RMK A01 T00270027  RH  100%=      5-min Rain = 0
KMC1 080943Z 35005KT 03/03 A3017 RMK A01 T00270027  RH  100%=      5-min Rain = 0
KMC1 080944Z 35004KT 03/03 A3017 RMK A01 T00270027  RH  100%=      5-min Rain = 0.01
KMC1 080945Z 35007KT 03/03 A3017 RMK A01 T00270027  RH  100%=      5-min Rain = 0
KMC1 080946Z 35007KT 03/03 A3017 RMK A01 T00270027  RH  100%=      5-min Rain = 0
KMC1 080947Z 35004KT 03/03 A3017 RMK A01 T00270027  RH  100%=      5-min Rain = 0
KMC1 080948Z 35005KT 03/03 A3017 RMK A01 T00270027  RH  100%=      5-min Rain = 0
KMC1 080949Z 36005KT 03/03 A3017 RMK A01 T00270027  RH  100%=      5-min Rain = 0
KMC1 080950Z 35006KT 03/03 A3017 RMK A01 T00280027  RH  100%=      5-min Rain = 0
KMC1 080951Z 01007KT 03/03 A3017 RMK A01 T00270027  RH  100%=      5-min Rain = 0
KMC1 080952Z 36006KT 03/03 A3017 RMK A01 T00270027  RH  100%=      5-min Rain = 0
KMC1 080953Z 35005KT 03/03 A3017 RMK A01 T00270027  RH  100%=      5-min Rain = 0
KMC1 080954Z 35004KT 03/03 A3017 RMK A01 T00270027  RH  100%=      5-min Rain = 0
KMC1 080955Z 35006KT 03/03 A3017 RMK A01 T00270027  RH  100%=      5-min Rain = 0
KMC1 080956Z 35004KT 03/03 A3017 RMK A01 T00270027  RH  100%=      5-min Rain = 0
KMC1 080957Z 35005KT 03/03 A3017 RMK A01 T00270027  RH  100%=      5-min Rain = 0
KMC1 080958Z 36006KT 03/03 A3017 RMK A01 T00270027  RH  100%=      5-min Rain = 0
KMC1 080959Z 36007KT 03/03 A3017 RMK A01 T00270027  RH  100%=      5-min Rain = 0
KMC1 081000Z 36007KT 03/03 A3017 RMK A01 T00270027  RH  100%=      5-min Rain = 0
KMC1 081001Z 36006KT 03/03 A3017 RMK A01 T00270027  RH  100%=      5-min Rain = 0
KMC1 081002Z 34007KT 03/03 A3017 RMK A01 T00270027  RH  100%=      5-min Rain = 0
KMC1 081003Z 34005KT 03/03 A3017 RMK A01 T00260026  RH  100%=      5-min Rain = 0
KMC1 081004Z 36006KT 03/03 A3017 RMK A01 T00260026  RH  100%=      5-min Rain = 0
KMC1 081005Z 35006KT 03/03 A3017 RMK A01 T00260026  RH  100%=      5-min Rain = 0
KMC1 081006Z 35008KT 03/03 A3017 RMK A01 T00260026  RH  100%=      5-min Rain = 0
KMC1 081007Z 36008KT 03/03 A3017 RMK A01 T00260026  RH  100%=      5-min Rain = 0
KMC1 081008Z 00006KT 03/03 A3017 RMK A01 T00260026  RH  100%=      5-min Rain = 0
KMC1 081009Z 00008KT 03/03 A3017 RMK A01 T00260026  RH  100%=      5-min Rain = 0
KMC1 081010Z 36005KT 03/03 A3016 RMK A01 T00270026  RH  100%=      5-min Rain = 0
KMC1 081011Z 36005KT 03/03 A3017 RMK A01 T00260026  RH  100%=      5-min Rain = 0
KMC1 081012Z 00005KT 03/03 A3017 RMK A01 T00260026  RH  100%=      5-min Rain = 0
KMC1 081013Z 35006KT 03/03 A3017 RMK A01 T00270027  RH  100%=      5-min Rain = 0.01
KMC1 081014Z 34006KT 03/03 A3017 RMK A01 T00270027  RH  100%=      5-min Rain = 0
KMC1 081015Z 34006KT 03/03 A3017 RMK A01 T00270027  RH  100%=      5-min Rain = 0
KMC1 081016Z 33006KT 03/03 A3017 RMK A01 T00270027  RH  100%=      5-min Rain = 0
KMC1 081017Z 34006KT 03/03 A3017 RMK A01 T00260026  RH  100%=      5-min Rain = 0
KMC1 081018Z 33005KT 03/03 A3017 RMK A01 T00260026  RH  100%=      5-min Rain = 0
KMC1 081019Z 33005KT 03/03 A3017 RMK A01 T00260026  RH  100%=      5-min Rain = 0
KMC1 081020Z 33005KT 03/03 A3017 RMK A01 T00260026  RH  100%=      5-min Rain = 0
KMC1 081021Z 34004KT 03/03 A3017 RMK A01 T00260026  RH  100%=      5-min Rain = 0
KMC1 081022Z 34005KT 03/03 A3017 RMK A01 T00260026  RH  100%=      5-min Rain = 0
KMC1 081023Z 34007KT 03/03 A3017 RMK A01 T00260026  RH  100%=      5-min Rain = 0
KMC1 081024Z 35006KT 03/03 A3017 RMK A01 T00260026  RH  100%=      5-min Rain = 0
KMC1 081025Z 34006KT 03/03 A3017 RMK A01 T00260026  RH  100%=      5-min Rain = 0
KMC1 081026Z 34007KT 03/03 A3017 RMK A01 T00260026  RH  100%=      5-min Rain = 0
KMC1 081027Z 34006KT 03/03 A3017 RMK A01 T00260026  RH  100%=      5-min Rain = 0
KMC1 081028Z 34005KT 03/03 A3017 RMK A01 T00260026  RH  100%=      5-min Rain = 0
KMC1 081029Z 33006KT 03/03 A3017 RMK A01 T00260026  RH  100%=      5-min Rain = 0
KMC1 081030Z 34005KT 03/03 A3017 RMK A01 T00260025  RH  100%=      5-min Rain = 0
KMC1 081031Z 34006KT 03/03 A3017 RMK A01 T00260026  RH  100%=      5-min Rain = 0
KMC1 081032Z 33006KT 03/03 A3017 RMK A01 T00260025  RH  100%=      5-min Rain = 0
KMC1 081033Z 34004KT 03/03 A3017 RMK A01 T00250025  RH  100%=      5-min Rain = 0
KMC1 081034Z 33005KT 03/03 A3017 RMK A01 T00250025  RH  100%=      5-min Rain = 0
KMC1 081035Z 33005KT 03/03 A3017 RMK A01 T00250025  RH  100%=      5-min Rain = 0
KMC1 081036Z 34003KT 03/03 A3017 RMK A01 T00250025  RH  100%=      5-min Rain = 0
KMC1 081037Z 34005KT 03/03 A3017 RMK A01 T00250025  RH  100%=      5-min Rain = 0
KMC1 081038Z 33004KT 03/03 A3017 RMK A01 T00250025  RH  100%=      5-min Rain = 0
KMC1 081039Z 34004KT 03/03 A3017 RMK A01 T00250025  RH  100%=      5-min Rain = 0
KMC1 081040Z 34005KT 03/03 A3017 RMK A01 T00250025  RH  100%=      5-min Rain = 0
KMC1 081041Z 33004KT 03/03 A3017 RMK A01 T00250025  RH  100%=      5-min Rain = 0
KMC1 081042Z 32005KT 03/03 A3017 RMK A01 T00250025  RH  100%=      5-min Rain = 0
KMC1 081043Z 33005KT 03/03 A3017 RMK A01 T00250025  RH  100%=      5-min Rain = 0
KMC1 081044Z 33005KT 03/03 A3017 RMK A01 T00250025  RH  100%=      5-min Rain = 0
KMC1 081045Z 33005KT 03/03 A3017 RMK A01 T00250025  RH  100%=      5-min Rain = 0
KMC1 081046Z 34005KT 03/03 A3018 RMK A01 T00250025  RH  100%=      5-min Rain = 0
KMC1 081047Z 32006KT 03/02 A3018 RMK A01 T00250024  RH  100%=      5-min Rain = 0
KMC1 081048Z 32005KT 03/03 A3018 RMK A01 T00250025  RH  100%=      5-min Rain = 0
KMC1 081049Z 32005KT 02/02 A3018 RMK A01 T00240024  RH  100%=      5-min Rain = 0
KMC1 081050Z 31005KT 02/02 A3018 RMK A01 T00240024  RH  100%=      5-min Rain = 0
KMC1 081051Z 32006KT 03/02 A3018 RMK A01 T00250024  RH  100%=      5-min Rain = 0
KMC1 081052Z 32008KT 02/02 A3018 RMK A01 T00240024  RH  100%=      5-min Rain = 0
KMC1 081053Z 33006KT 02/02 A3018 RMK A01 T00240024  RH  100%=      5-min Rain = 0
KMC1 081054Z 32006KT 02/02 A3018 RMK A01 T00240024  RH  100%=      5-min Rain = 0
KMC1 081055Z 32006KT 02/02 A3018 RMK A01 T00240024  RH  100%=      5-min Rain = 0
KMC1 081056Z 33006KT 02/02 A3018 RMK A01 T00240024  RH  100%=      5-min Rain = 0
KMC1 081057Z 33006KT 02/02 A3018 RMK A01 T00240024  RH  100%=      5-min Rain = 0
KMC1 081058Z 33006KT 02/02 A3018 RMK A01 T00240024  RH  100%=      5-min Rain = 0
KMC1 081059Z 33005KT 02/02 A3018 RMK A01 T00240024  RH  100%=      5-min Rain = 0
KMC1 081100Z 33004KT 02/02 A3018 RMK A01 T00240024  RH  100%=      5-min Rain = 0
KMC1 081101Z 31005KT 02/02 A3017 RMK A01 T00240024  RH  100%=      5-min Rain = 0
KMC1 081102Z 32005KT 02/02 A3017 RMK A01 T00240024  RH  100%=      5-min Rain = 0.01
KMC1 081103Z 33005KT 02/02 A3017 RMK A01 T00240024  RH  100%=      5-min Rain = 0
KMC1 081104Z 33007KT 02/02 A3017 RMK A01 T00240024  RH  100%=      5-min Rain = 0
KMC1 081105Z 33007KT 02/02 A3017 RMK A01 T00240024  RH  100%=      5-min Rain = 0
KMC1 081106Z 34004KT 02/02 A3017 RMK A01 T00240024  RH  100%=      5-min Rain = 0
KMC1 081107Z 34006KT 02/02 A3017 RMK A01 T00230023  RH  100%=      5-min Rain = 0
KMC1 081108Z 33005KT 02/02 A3017 RMK A01 T00230023  RH  100%=      5-min Rain = 0
KMC1 081109Z 34004KT 02/02 A3017 RMK A01 T00240023  RH  100%=      5-min Rain = 0
KMC1 081110Z 33006KT 02/02 A3017 RMK A01 T00230023  RH  100%=      5-min Rain = 0
KMC1 081111Z 33007KT 02/02 A3017 RMK A01 T00240024  RH  100%=      5-min Rain = 0.01
KMC1 081112Z 32006KT 02/02 A3017 RMK A01 T00230023  RH  100%=      5-min Rain = 0
KMC1 081113Z 33008KT 02/02 A3017 RMK A01 T00230023  RH  100%=      5-min Rain = 0
KMC1 081114Z 34006KT 02/02 A3017 RMK A01 T00230022  RH  100%=      5-min Rain = 0
KMC1 081115Z 34008G13KT 02/02 A3017 RMK A01 T00220022  RH  100%=      5-min Rain = 0
KMC1 081116Z 34010KT 02/02 A3017 RMK A01 T00220022  RH  100%=      5-min Rain = 0
KMC1 081117Z 35008KT 02/02 A3017 RMK A01 T00220022  RH  100%=      5-min Rain = 0
KMC1 081118Z 35009KT 02/02 A3017 RMK A01 T00220022  RH  100%=      5-min Rain = 0
KMC1 081119Z 35008KT 02/02 A3017 RMK A01 T00220022  RH  100%=      5-min Rain = 0
KMC1 081120Z 35009KT 02/02 A3017 RMK A01 T00220022  RH  100%=      5-min Rain = 0
KMC1 081121Z 36007KT 02/02 A3017 RMK A01 T00220022  RH  100%=      5-min Rain = 0
KMC1 081122Z 35009KT 02/02 A3017 RMK A01 T00220022  RH  100%=      5-min Rain = 0.01
KMC1 081123Z 35008KT 02/02 A3017 RMK A01 T00220022  RH  100%=      5-min Rain = 0
KMC1 081124Z 35006KT 02/02 A3017 RMK A01 T00220022  RH  100%=      5-min Rain = 0
KMC1 081125Z 35006KT 02/02 A3017 RMK A01 T00220022  RH  100%=      5-min Rain = 0
KMC1 081126Z 35006KT 02/02 A3017 RMK A01 T00220022  RH  100%=      5-min Rain = 0
KMC1 081127Z 34006KT 02/02 A3017 RMK A01 T00220022  RH  100%=      5-min Rain = 0
KMC1 081128Z 34006KT 02/02 A3017 RMK A01 T00230023  RH  100%=      5-min Rain = 0
KMC1 081129Z 34005KT 02/02 A3017 RMK A01 T00230022  RH  100%=      5-min Rain = 0
KMC1 081130Z 34005KT 02/02 A3017 RMK A01 T00230022  RH  100%=      5-min Rain = 0
KMC1 081131Z 34006KT 02/02 A3017 RMK A01 T00230023  RH  100%=      5-min Rain = 0
KMC1 081132Z 35007KT 02/02 A3017 RMK A01 T00230023  RH  100%=      5-min Rain = 0
KMC1 081133Z 34006KT 02/02 A3017 RMK A01 T00230022  RH  100%=      5-min Rain = 0
KMC1 081134Z 34005KT 02/02 A3017 RMK A01 T00220022  RH  100%=      5-min Rain = 0
KMC1 081135Z 34006KT 02/02 A3017 RMK A01 T00230023  RH  100%=      5-min Rain = 0
KMC1 081136Z 34007KT 02/02 A3017 RMK A01 T00230022  RH  100%=      5-min Rain = 0
KMC1 081137Z 34008KT 02/02 A3017 RMK A01 T00220022  RH  100%=      5-min Rain = 0
KMC1 081138Z 35007KT 02/02 A3017 RMK A01 T00220022  RH  100%=      5-min Rain = 0
KMC1 081139Z 34008KT 02/02 A3017 RMK A01 T00220022  RH  100%=      5-min Rain = 0
KMC1 081140Z 34006KT 02/02 A3017 RMK A01 T00220022  RH  100%=      5-min Rain = 0
KMC1 081141Z 34006KT 02/02 A3017 RMK A01 T00220022  RH  100%=      5-min Rain = 0
KMC1 081142Z 34006KT 02/02 A3017 RMK A01 T00220022  RH  100%=      5-min Rain = 0
KMC1 081143Z 35006KT 02/02 A3018 RMK A01 T00220022  RH  100%=      5-min Rain = 0
KMC1 081144Z 34008KT 02/02 A3018 RMK A01 T00220022  RH  100%=      5-min Rain = 0
KMC1 081145Z 35007KT 02/02 A3018 RMK A01 T00220022  RH  100%=      5-min Rain = 0
KMC1 081146Z 34005KT 02/02 A3018 RMK A01 T00220022  RH  100%=      5-min Rain = 0
KMC1 081147Z 33006KT 02/02 A3018 RMK A01 T00220022  RH  100%=      5-min Rain = 0
KMC1 081148Z 34006KT 02/02 A3018 RMK A01 T00220022  RH  100%=      5-min Rain = 0
KMC1 081149Z 33006KT 02/02 A3018 RMK A01 T00220022  RH  100%=      5-min Rain = 0
KMC1 081150Z 33008KT 02/02 A3018 RMK A01 T00220022  RH  100%=      5-min Rain = 0
KMC1 081151Z 34007KT 02/02 A3018 RMK A01 T00220022  RH  100%=      5-min Rain = 0
KMC1 081152Z 34006KT 02/02 A3018 RMK A01 T00220021  RH  100%=      5-min Rain = 0
KMC1 081153Z 34006KT 02/02 A3018 RMK A01 T00220022  RH  100%=      5-min Rain = 0.01
KMC1 081154Z 35006KT 02/02 A3018 RMK A01 T00220022  RH  100%=      5-min Rain = 0
KMC1 081155Z 34005KT 02/02 A3018 RMK A01 T00220022  RH  100%=      5-min Rain = 0
KMC1 081156Z 34007KT 02/02 A3018 RMK A01 T00220022  RH  100%=      5-min Rain = 0
KMC1 081157Z 33006KT 02/02 A3018 RMK A01 T00220022  RH  100%=      5-min Rain = 0
KMC1 081158Z 34007KT 02/02 A3018 RMK A01 T00220022  RH  100%=      5-min Rain = 0
KMC1 081159Z 34007KT 02/02 A3018 RMK A01 T00220022  RH  100%=      5-min Rain = 0
KMC1 081200Z 33008KT 02/02 A3018 RMK A01 T00210021  RH  100%=      5-min Rain = 0
KMC1 081201Z 33007KT 02/02 A3018 RMK A01 T00210021  RH  100%=      5-min Rain = 0
KMC1 081202Z 33007KT 02/02 A3018 RMK A01 T00210021  RH  100%=      5-min Rain = 0
KMC1 081203Z 33006KT 02/02 A3018 RMK A01 T00210021  RH  100%=      5-min Rain = 0
KMC1 081204Z 33005KT 02/02 A3018 RMK A01 T00210021  RH  100%=      5-min Rain = 0
KMC1 081205Z 33007KT 02/02 A3019 RMK A01 T00210021  RH  100%=      5-min Rain = 0.01
KMC1 081206Z 34007KT 02/02 A3019 RMK A01 T00210021  RH  100%=      5-min Rain = 0
KMC1 081207Z 34008G14KT 02/02 A3019 RMK A01 T00210021  RH  100%=      5-min Rain = 0
KMC1 081208Z 34010KT 02/02 A3019 RMK A01 T00210021  RH  100%=      5-min Rain = 0
KMC1 081209Z 34007KT 02/02 A3019 RMK A01 T00210021  RH  100%=      5-min Rain = 0
KMC1 081210Z 34008KT 02/02 A3019 RMK A01 T00200020  RH  100%=      5-min Rain = 0
KMC1 081211Z 33007G12KT 02/02 A3019 RMK A01 T00200020  RH  100%=      5-min Rain = 0
KMC1 081212Z 34010KT 02/02 A3019 RMK A01 T00200020  RH  100%=      5-min Rain = 0
KMC1 081213Z 33008KT 02/02 A3019 RMK A01 T00200020  RH  100%=      5-min Rain = 0
KMC1 081214Z 35007KT 02/02 A3019 RMK A01 T00200020  RH  100%=      5-min Rain = 0
KMC1 081215Z 34006KT 02/02 A3019 RMK A01 T00200020  RH  100%=      5-min Rain = 0.01
KMC1 081216Z 36006KT 02/02 A3019 RMK A01 T00200020  RH  100%=      5-min Rain = 0
KMC1 081217Z 36008KT 02/02 A3019 RMK A01 T00200020  RH  100%=      5-min Rain = 0
KMC1 081218Z 00008KT 02/02 A3019 RMK A01 T00200020  RH  100%=      5-min Rain = 0
KMC1 081219Z 35005KT 02/02 A3019 RMK A01 T00200020  RH  100%=      5-min Rain = 0
KMC1 081220Z 35006KT 02/02 A3019 RMK A01 T00210021  RH  100%=      5-min Rain = 0
KMC1 081221Z 35006KT 02/02 A3019 RMK A01 T00210021  RH  100%=      5-min Rain = 0
KMC1 081222Z 35007KT 02/02 A3019 RMK A01 T00210021  RH  100%=      5-min Rain = 0
KMC1 081223Z 35005KT 02/02 A3019 RMK A01 T00210021  RH  100%=      5-min Rain = 0
KMC1 081224Z 35006KT 02/02 A3019 RMK A01 T00210021  RH  100%=      5-min Rain = 0
KMC1 081225Z 35006KT 02/02 A3019 RMK A01 T00210021  RH  100%=      5-min Rain = 0
KMC1 081226Z 33006KT 02/02 A3019 RMK A01 T00210021  RH  100%=      5-min Rain = 0
KMC1 081227Z 32006KT 02/02 A302 RMK A01 T00210021  RH  100%=      5-min Rain = 0
KMC1 081228Z 33005KT 02/02 A302 RMK A01 T00210021  RH  100%=      5-min Rain = 0
KMC1 081229Z 33005KT 02/02 A302 RMK A01 T00210021  RH  100%=      5-min Rain = 0
KMC1 081230Z 33005KT 02/02 A302 RMK A01 T00210021  RH  100%=      5-min Rain = 0
KMC1 081231Z 33005KT 02/02 A302 RMK A01 T00210021  RH  100%=      5-min Rain = 0
KMC1 081232Z 33005KT 02/02 A302 RMK A01 T00210021  RH  100%=      5-min Rain = 0
KMC1 081233Z 32004KT 02/02 A302 RMK A01 T00210021  RH  100%=      5-min Rain = 0
KMC1 081234Z 33004KT 02/02 A302 RMK A01 T00210021  RH  100%=      5-min Rain = 0
KMC1 081235Z 34005KT 02/02 A302 RMK A01 T00210021  RH  100%=      5-min Rain = 0
KMC1 081236Z 35005KT 02/02 A302 RMK A01 T00210021  RH  100%=      5-min Rain = 0.01
KMC1 081237Z 35006KT 02/02 A302 RMK A01 T00210021  RH  100%=      5-min Rain = 0
KMC1 081238Z 34005KT 02/02 A302 RMK A01 T00210021  RH  100%=      5-min Rain = 0
KMC1 081239Z 34004KT 02/02 A302 RMK A01 T00210021  RH  100%=      5-min Rain = 0
KMC1 081240Z 32005KT 02/02 A302 RMK A01 T00210021  RH  100%=      5-min Rain = 0
KMC1 081241Z 33007KT 02/02 A302 RMK A01 T00210021  RH  100%=      5-min Rain = 0
KMC1 081242Z 34006KT 02/02 A302 RMK A01 T00210021  RH  100%=      5-min Rain = 0
KMC1 081243Z 35005KT 02/02 A302 RMK A01 T00210021  RH  100%=      5-min Rain = 0
KMC1 081244Z 33006KT 02/02 A302 RMK A01 T00210021  RH  100%=      5-min Rain = 0
KMC1 081245Z 33007KT 02/02 A302 RMK A01 T00210021  RH  100%=      5-min Rain = 0
KMC1 081246Z 33005KT 02/02 A302 RMK A01 T00210021  RH  100%=      5-min Rain = 0.01
KMC1 081247Z 34006KT 02/02 A302 RMK A01 T00210021  RH  100%=      5-min Rain = 0
KMC1 081248Z 35009KT 02/02 A302 RMK A01 T00210021  RH  100%=      5-min Rain = 0
KMC1 081249Z 34007KT 02/02 A302 RMK A01 T00210021  RH  100%=      5-min Rain = 0
KMC1 081250Z 34008KT 02/02 A302 RMK A01 T00210021  RH  100%=      5-min Rain = 0
KMC1 081251Z 35007KT 02/02 A302 RMK A01 T00210021  RH  100%=      5-min Rain = 0
KMC1 081252Z 34009KT 02/02 A302 RMK A01 T00210021  RH  100%=      5-min Rain = 0
KMC1 081253Z 35007KT 02/02 A302 RMK A01 T00210021  RH  100%=      5-min Rain = 0
KMC1 081254Z 34006KT 02/02 A302 RMK A01 T00210021  RH  100%=      5-min Rain = 0.01
KMC1 081255Z 33007KT 02/02 A302 RMK A01 T00210021  RH  100%=      5-min Rain = 0
KMC1 081256Z 34005KT 02/02 A302 RMK A01 T00210021  RH  100%=      5-min Rain = 0
KMC1 081257Z 34005KT 02/02 A302 RMK A01 T00210021  RH  100%=      5-min Rain = 0
KMC1 081258Z 33008KT 02/02 A302 RMK A01 T00210021  RH  100%=      5-min Rain = 0
KMC1 081259Z 34008KT 02/02 A302 RMK A01 T00210021  RH  100%=      5-min Rain = 0
KMC1 081300Z 33008KT 02/02 A302 RMK A01 T00210021  RH  100%=      5-min Rain = 0
KMC1 081301Z 33005KT 02/02 A302 RMK A01 T00200020  RH  100%=      5-min Rain = 0
KMC1 081302Z 34006KT 02/02 A302 RMK A01 T00200020  RH  100%=      5-min Rain = 0
KMC1 081303Z 34008KT 02/02 A302 RMK A01 T00200020  RH  100%=      5-min Rain = 0
KMC1 081304Z 33006KT 02/02 A302 RMK A01 T00200020  RH  100%=      5-min Rain = 0
KMC1 081305Z 33006KT 02/02 A3021 RMK A01 T00200020  RH  100%=      5-min Rain = 0
KMC1 081306Z 34005KT 02/02 A302 RMK A01 T00200020  RH  100%=      5-min Rain = 0
KMC1 081307Z 34005KT 02/02 A3021 RMK A01 T00210020  RH  100%=      5-min Rain = 0
KMC1 081308Z 33005KT 02/02 A3021 RMK A01 T00210021  RH  100%=      5-min Rain = 0
KMC1 081309Z 34006KT 02/02 A3021 RMK A01 T00210021  RH  100%=      5-min Rain = 0
KMC1 081310Z 33007KT 02/02 A3021 RMK A01 T00210021  RH  100%=      5-min Rain = 0.01
KMC1 081311Z 33005KT 02/02 A3021 RMK A01 T00210021  RH  100%=      5-min Rain = 0
KMC1 081312Z 32007KT 02/02 A3021 RMK A01 T00210021  RH  100%=      5-min Rain = 0
KMC1 081313Z 33008KT 02/02 A3021 RMK A01 T00210021  RH  100%=      5-min Rain = 0
KMC1 081314Z 33008KT 02/02 A3021 RMK A01 T00210021  RH  100%=      5-min Rain = 0
KMC1 081315Z 34007KT 02/02 A3021 RMK A01 T00210021  RH  100%=      5-min Rain = 0
KMC1 081316Z 33006KT 02/02 A3021 RMK A01 T00210021  RH  100%=      5-min Rain = 0
KMC1 081317Z 35007KT 02/02 A3021 RMK A01 T00200020  RH  100%=      5-min Rain = 0
KMC1 081318Z 33007KT 02/02 A3021 RMK A01 T00200020  RH  100%=      5-min Rain = 0
KMC1 081319Z 34009KT 02/02 A3021 RMK A01 T00200020  RH  100%=      5-min Rain = 0
KMC1 081320Z 33006KT 02/02 A3021 RMK A01 T00200020  RH  100%=      5-min Rain = 0
KMC1 081321Z 34008KT 02/02 A3021 RMK A01 T00200020  RH  100%=      5-min Rain = 0
KMC1 081322Z 34010KT 02/02 A3021 RMK A01 T00200020  RH  100%=      5-min Rain = 0
KMC1 081323Z 34008KT 02/02 A3021 RMK A01 T00200020  RH  100%=      5-min Rain = 0
KMC1 081324Z 35009KT 02/02 A3021 RMK A01 T00200020  RH  100%=      5-min Rain = 0
KMC1 081325Z 34010KT 02/02 A3021 RMK A01 T00200020  RH  100%=      5-min Rain = 0
KMC1 081326Z 35010KT 02/02 A3021 RMK A01 T00200020  RH  100%=      5-min Rain = 0
KMC1 081327Z 35008KT 02/02 A3021 RMK A01 T00200019  RH  100%=      5-min Rain = 0
KMC1 081328Z 34009KT 02/02 A3021 RMK A01 T00200019  RH  100%=      5-min Rain = 0
KMC1 081329Z 35009KT 02/02 A3021 RMK A01 T00200019  RH  100%=      5-min Rain = 0
KMC1 081330Z 34007KT 02/02 A3021 RMK A01 T00200019  RH  100%=      5-min Rain = 0
KMC1 081331Z 34008KT 02/02 A3021 RMK A01 T00200019  RH  099%=      5-min Rain = 0
KMC1 081332Z 34009KT 02/02 A3021 RMK A01 T00200019  RH  099%=      5-min Rain = 0
KMC1 081333Z 35009KT 02/02 A3021 RMK A01 T00200019  RH  099%=      5-min Rain = 0
KMC1 081334Z 34010KT 02/02 A3021 RMK A01 T00200019  RH  099%=      5-min Rain = 0
KMC1 081335Z 35009KT 02/02 A3021 RMK A01 T00190018  RH  099%=      5-min Rain = 0
KMC1 081336Z 34008KT 02/02 A3021 RMK A01 T00200019  RH  099%=      5-min Rain = 0
KMC1 081337Z 34009KT 02/02 A3021 RMK A01 T00200018  RH  099%=      5-min Rain = 0
KMC1 081338Z 34007KT 02/02 A3021 RMK A01 T00190018  RH  099%=      5-min Rain = 0
KMC1 081339Z 35005KT 02/02 A3021 RMK A01 T00190018  RH  099%=      5-min Rain = 0
KMC1 081340Z 35006KT 02/02 A3021 RMK A01 T00190018  RH  099%=      5-min Rain = 0
KMC1 081341Z 35007KT 02/02 A3021 RMK A01 T00190019  RH  099%=      5-min Rain = 0
KMC1 081342Z 34007KT 02/02 A3021 RMK A01 T00190019  RH  100%=      5-min Rain = 0
KMC1 081343Z 35007KT 02/02 A3021 RMK A01 T00190019  RH  100%=      5-min Rain = 0
KMC1 081344Z 34008KT 02/02 A3021 RMK A01 T00200019  RH  100%=      5-min Rain = 0
KMC1 081345Z 34009KT 02/02 A3021 RMK A01 T00190019  RH  100%=      5-min Rain = 0
KMC1 081346Z 34007KT 02/02 A3022 RMK A01 T00190019  RH  100%=      5-min Rain = 0
KMC1 081347Z 34009KT 02/02 A3022 RMK A01 T00190019  RH  100%=      5-min Rain = 0
KMC1 081348Z 34007KT 02/02 A3022 RMK A01 T00190019  RH  100%=      5-min Rain = 0
KMC1 081349Z 35006G12KT 02/02 A3022 RMK A01 T00190018  RH  099%=      5-min Rain = 0
KMC1 081350Z 35011KT 02/02 A3022 RMK A01 T00190018  RH  099%=      5-min Rain = 0
KMC1 081351Z 34008KT 02/02 A3022 RMK A01 T00190018  RH  099%=      5-min Rain = 0
KMC1 081352Z 35006KT 02/02 A3022 RMK A01 T00190018  RH  099%=      5-min Rain = 0
KMC1 081353Z 35008KT 02/02 A3022 RMK A01 T00190018  RH  099%=      5-min Rain = 0
KMC1 081354Z 34006KT 02/02 A3022 RMK A01 T00190018  RH  099%=      5-min Rain = 0
KMC1 081355Z 34009G16KT 02/02 A3022 RMK A01 T00190018  RH  099%=      5-min Rain = 0
KMC1 081356Z 35009KT 02/02 A3022 RMK A01 T00190018  RH  099%=      5-min Rain = 0
KMC1 081357Z 34010KT 02/02 A3022 RMK A01 T00190018  RH  099%=      5-min Rain = 0
KMC1 081358Z 34008KT 02/02 A3022 RMK A01 T00190018  RH  099%=      5-min Rain = 0
KMC1 081359Z 33008KT 02/02 A3022 RMK A01 T00190017  RH  099%=      5-min Rain = 0
KMC1 081400Z 32010KT 02/02 A3022 RMK A01 T00190018  RH  099%=      5-min Rain = 0
KMC1 081401Z 33009KT 02/02 A3022 RMK A01 T00190017  RH  099%=      5-min Rain = 0
KMC1 081402Z 34009KT 02/02 A3022 RMK A01 T00180017  RH  099%=      5-min Rain = 0
KMC1 081403Z 34008KT 02/02 A3022 RMK A01 T00190017  RH  099%=      5-min Rain = 0
KMC1 081404Z 34009KT 02/02 A3022 RMK A01 T00190017  RH  099%=      5-min Rain = 0
KMC1 081405Z 33011KT 02/02 A3022 RMK A01 T00190017  RH  099%=      5-min Rain = 0
KMC1 081406Z 34010KT 02/02 A3022 RMK A01 T00180016  RH  099%=      5-min Rain = 0
KMC1 081407Z 34008KT 02/02 A3022 RMK A01 T00180016  RH  099%=      5-min Rain = 0
KMC1 081408Z 35008KT 02/02 A3022 RMK A01 T00180016  RH  099%=      5-min Rain = 0
KMC1 081409Z 34009KT 02/02 A3022 RMK A01 T00180016  RH  099%=      5-min Rain = 0
KMC1 081410Z 34008KT 02/02 A3022 RMK A01 T00180017  RH  099%=      5-min Rain = 0
KMC1 081411Z 34007KT 02/02 A3023 RMK A01 T00180016  RH  099%=      5-min Rain = 0
KMC1 081412Z 34008G13KT 02/02 A3023 RMK A01 T00180016  RH  099%=      5-min Rain = 0
KMC1 081413Z 33010KT 02/02 A3023 RMK A01 T00180016  RH  099%=      5-min Rain = 0
KMC1 081414Z 34008KT 02/02 A3023 RMK A01 T00180016  RH  099%=      5-min Rain = 0
KMC1 081415Z 34008KT 02/02 A3023 RMK A01 T00180016  RH  099%=      5-min Rain = 0
KMC1 081416Z 34007KT 02/02 A3023 RMK A01 T00180016  RH  099%=      5-min Rain = 0
KMC1 081417Z 34007KT 02/02 A3023 RMK A01 T00180017  RH  099%=      5-min Rain = 0
KMC1 081418Z 34007KT 02/02 A3023 RMK A01 T00180017  RH  099%=      5-min Rain = 0
KMC1 081419Z 34009KT 02/02 A3023 RMK A01 T00180017  RH  099%=      5-min Rain = 0
KMC1 081420Z 34009KT 02/02 A3023 RMK A01 T00180017  RH  099%=      5-min Rain = 0
KMC1 081421Z 33008KT 02/02 A3023 RMK A01 T00180016  RH  099%=      5-min Rain = 0
KMC1 081422Z 33006KT 02/02 A3023 RMK A01 T00180017  RH  099%=      5-min Rain = 0
KMC1 081423Z 35005KT 02/02 A3023 RMK A01 T00180017  RH  099%=      5-min Rain = 0
KMC1 081424Z 34008KT 02/02 A3023 RMK A01 T00190018  RH  099%=      5-min Rain = 0
KMC1 081425Z 35008KT 02/02 A3023 RMK A01 T00190018  RH  099%=      5-min Rain = 0
KMC1 081426Z 35008KT 02/02 A3023 RMK A01 T00190018  RH  099%=      5-min Rain = 0
KMC1 081427Z 34006KT 02/02 A3023 RMK A01 T00190018  RH  099%=      5-min Rain = 0
KMC1 081428Z 34009KT 02/02 A3023 RMK A01 T00190018  RH  099%=      5-min Rain = 0
KMC1 081429Z 34009KT 02/02 A3024 RMK A01 T00190017  RH  099%=      5-min Rain = 0
KMC1 081430Z 33006KT 02/02 A3024 RMK A01 T00180017  RH  099%=      5-min Rain = 0
KMC1 081431Z 35005KT 02/02 A3024 RMK A01 T00190017  RH  099%=      5-min Rain = 0
KMC1 081432Z 35007KT 02/02 A3024 RMK A01 T00190017  RH  099%=      5-min Rain = 0
KMC1 081433Z 36007KT 02/02 A3024 RMK A01 T00190018  RH  099%=      5-min Rain = 0
KMC1 081434Z 35007KT 02/02 A3024 RMK A01 T00190017  RH  099%=      5-min Rain = 0
KMC1 081435Z 34006KT 02/02 A3024 RMK A01 T00190018  RH  099%=      5-min Rain = 0
KMC1 081436Z 34007KT 02/02 A3024 RMK A01 T00190018  RH  099%=      5-min Rain = 0
KMC1 081437Z 35009KT 02/02 A3024 RMK A01 T00190018  RH  099%=      5-min Rain = 0
KMC1 081438Z 34006KT 02/02 A3024 RMK A01 T00190018  RH  099%=      5-min Rain = 0
KMC1 081439Z 34008KT 02/02 A3024 RMK A01 T00190018  RH  099%=      5-min Rain = 0
KMC1 081440Z 34007KT 02/02 A3024 RMK A01 T00190018  RH  099%=      5-min Rain = 0
KMC1 081441Z 34007KT 02/02 A3024 RMK A01 T00190017  RH  099%=      5-min Rain = 0
KMC1 081442Z 34007KT 02/02 A3024 RMK A01 T00190018  RH  099%=      5-min Rain = 0
KMC1 081443Z 33005KT 02/02 A3024 RMK A01 T00180017  RH  099%=      5-min Rain = 0
KMC1 081444Z 33007KT 02/02 A3024 RMK A01 T00180017  RH  099%=      5-min Rain = 0
KMC1 081445Z 34007KT 02/02 A3024 RMK A01 T00190018  RH  099%=      5-min Rain = 0
KMC1 081446Z 33008KT 02/02 A3024 RMK A01 T00180017  RH  099%=      5-min Rain = 0
KMC1 081447Z 32009KT 02/02 A3024 RMK A01 T00190017  RH  099%=      5-min Rain = 0
KMC1 081448Z 32010KT 02/02 A3024 RMK A01 T00180017  RH  099%=      5-min Rain = 0
KMC1 081449Z 33008KT 02/02 A3025 RMK A01 T00190017  RH  099%=      5-min Rain = 0
KMC1 081450Z 33009KT 02/02 A3025 RMK A01 T00190017  RH  099%=      5-min Rain = 0
KMC1 081451Z 33008KT 02/02 A3025 RMK A01 T00180017  RH  099%=      5-min Rain = 0
KMC1 081452Z 34007KT 02/02 A3025 RMK A01 T00180018  RH  099%=      5-min Rain = 0
KMC1 081453Z 34007KT 02/02 A3025 RMK A01 T00190018  RH  099%=      5-min Rain = 0
KMC1 081454Z 33008KT 02/02 A3025 RMK A01 T00190018  RH  099%=      5-min Rain = 0
KMC1 081455Z 32008KT 02/02 A3025 RMK A01 T00180018  RH  099%=      5-min Rain = 0
KMC1 081456Z 33006KT 02/02 A3025 RMK A01 T00180018  RH  100%=      5-min Rain = 0
KMC1 081457Z 33007KT 02/02 A3025 RMK A01 T00190019  RH  100%=      5-min Rain = 0
KMC1 081458Z 34007KT 02/02 A3025 RMK A01 T00190018  RH  100%=      5-min Rain = 0
KMC1 081459Z 33008KT 02/02 A3025 RMK A01 T00190019  RH  100%=      5-min Rain = 0
KMC1 081500Z 32012KT 02/02 A3025 RMK A01 T00190018  RH  100%=      5-min Rain = 0
KMC1 081501Z 33010KT 02/02 A3025 RMK A01 T00180017  RH  100%=      5-min Rain = 0
KMC1 081502Z 33009KT 02/02 A3025 RMK A01 T00170016  RH  099%=      5-min Rain = 0
KMC1 081503Z 33008KT 02/02 A3025 RMK A01 T00170016  RH  099%=      5-min Rain = 0
KMC1 081504Z 33006G11KT 02/02 A3025 RMK A01 T00180017  RH  099%=      5-min Rain = 0
KMC1 081505Z 33009KT 02/02 A3025 RMK A01 T00180017  RH  099%=      5-min Rain = 0
KMC1 081506Z 33010KT 02/02 A3025 RMK A01 T00180017  RH  099%=      5-min Rain = 0
KMC1 081507Z 33010KT 02/02 A3025 RMK A01 T00180017  RH  099%=      5-min Rain = 0
KMC1 081508Z 34009KT 02/02 A3025 RMK A01 T00170016  RH  099%=      5-min Rain = 0
KMC1 081509Z 33009KT 02/02 A3025 RMK A01 T00170016  RH  099%=      5-min Rain = 0
KMC1 081510Z 34006KT 02/02 A3025 RMK A01 T00170016  RH  099%=      5-min Rain = 0
KMC1 081511Z 35007KT 02/02 A3025 RMK A01 T00180017  RH  099%=      5-min Rain = 0
KMC1 081512Z 35007KT 02/02 A3025 RMK A01 T00180017  RH  099%=      5-min Rain = 0
KMC1 081513Z 34006KT 02/02 A3025 RMK A01 T00190018  RH  099%=      5-min Rain = 0
KMC1 081514Z 34007KT 02/02 A3025 RMK A01 T00200019  RH  100%=      5-min Rain = 0
KMC1 081515Z 33007KT 02/02 A3025 RMK A01 T00200019  RH  100%=      5-min Rain = 0
KMC1 081516Z 34006KT 02/02 A3025 RMK A01 T00190019  RH  100%=      5-min Rain = 0.01
KMC1 081517Z 34009KT 02/02 A3025 RMK A01 T00200019  RH  100%=      5-min Rain = 0
KMC1 081518Z 34009KT 02/02 A3025 RMK A01 T00190019  RH  100%=      5-min Rain = 0
KMC1 081519Z 34007KT 02/02 A3025 RMK A01 T00190018  RH  099%=      5-min Rain = 0
KMC1 081520Z 34010KT 02/02 A3025 RMK A01 T00180018  RH  099%=      5-min Rain = 0
KMC1 081521Z 35011KT 02/02 A3025 RMK A01 T00190018  RH  099%=      5-min Rain = 0
KMC1 081522Z 34010KT 02/02 A3026 RMK A01 T00190018  RH  099%=      5-min Rain = 0
KMC1 081523Z 34010KT 02/02 A3026 RMK A01 T00190017  RH  099%=      5-min Rain = 0
KMC1 081524Z 34009KT 02/02 A3026 RMK A01 T00180017  RH  099%=      5-min Rain = 0
KMC1 081525Z 34009KT 02/02 A3026 RMK A01 T00190018  RH  099%=      5-min Rain = 0
KMC1 081526Z 33009KT 02/02 A3026 RMK A01 T00190018  RH  099%=      5-min Rain = 0
KMC1 081527Z 33009KT 02/02 A3026 RMK A01 T00190018  RH  099%=      5-min Rain = 0
KMC1 081528Z 33007KT 02/02 A3026 RMK A01 T00190018  RH  099%=      5-min Rain = 0
KMC1 081529Z 33007KT 02/02 A3026 RMK A01 T00200019  RH  099%=      5-min Rain = 0
KMC1 081530Z 34009KT 02/02 A3026 RMK A01 T00190019  RH  099%=      5-min Rain = 0
KMC1 081531Z 34006KT 02/02 A3026 RMK A01 T00190019  RH  099%=      5-min Rain = 0
KMC1 081532Z 34008KT 02/02 A3026 RMK A01 T00200019  RH  099%=      5-min Rain = 0
KMC1 081533Z 35007KT 02/02 A3026 RMK A01 T00200019  RH  100%=      5-min Rain = 0
KMC1 081534Z 35005KT 02/02 A3026 RMK A01 T00200019  RH  099%=      5-min Rain = 0
KMC1 081535Z 34005KT 02/02 A3026 RMK A01 T00200020  RH  100%=      5-min Rain = 0
KMC1 081536Z 34004KT 02/02 A3026 RMK A01 T00210020  RH  100%=      5-min Rain = 0
KMC1 081537Z 34006KT 02/02 A3026 RMK A01 T00210021  RH  100%=      5-min Rain = 0
KMC1 081538Z 34011KT 02/02 A3027 RMK A01 T00200020  RH  100%=      5-min Rain = 0
KMC1 081539Z 34009KT 02/02 A3026 RMK A01 T00190018  RH  099%=      5-min Rain = 0
KMC1 081540Z 32010KT 02/02 A3026 RMK A01 T00200019  RH  099%=      5-min Rain = 0
KMC1 081541Z 34008KT 02/02 A3026 RMK A01 T00200018  RH  099%=      5-min Rain = 0
KMC1 081542Z 35006KT 02/02 A3026 RMK A01 T00200018  RH  099%=      5-min Rain = 0
KMC1 081543Z 35010KT 02/02 A3027 RMK A01 T00200019  RH  099%=      5-min Rain = 0
KMC1 081544Z 35010KT 02/02 A3026 RMK A01 T00200019  RH  099%=      5-min Rain = 0
KMC1 081545Z 34007KT 02/02 A3026 RMK A01 T00200019  RH  099%=      5-min Rain = 0
KMC1 081546Z 35010KT 02/02 A3026 RMK A01 T00200019  RH  099%=      5-min Rain = 0
KMC1 081547Z 36011KT 02/02 A3026 RMK A01 T00200019  RH  099%=      5-min Rain = 0
KMC1 081548Z 35010KT 02/02 A3026 RMK A01 T00200018  RH  099%=      5-min Rain = 0
KMC1 081549Z 34009KT 02/02 A3026 RMK A01 T00200019  RH  099%=      5-min Rain = 0
KMC1 081550Z 35012KT 02/02 A3026 RMK A01 T00200019  RH  099%=      5-min Rain = 0
KMC1 081551Z 35011KT 02/02 A3026 RMK A01 T00200018  RH  099%=      5-min Rain = 0
KMC1 081552Z 35009G14KT 02/02 A3026 RMK A01 T00210019  RH  099%=      5-min Rain = 0
KMC1 081553Z 33009KT 02/02 A3026 RMK A01 T00210019  RH  098%=      5-min Rain = 0
KMC1 081554Z 34009KT 02/02 A3026 RMK A01 T00210019  RH  098%=      5-min Rain = 0
KMC1 081555Z 33007KT 02/02 A3026 RMK A01 T00210018  RH  098%=      5-min Rain = 0
KMC1 081556Z 34009KT 02/02 A3026 RMK A01 T00210019  RH  098%=      5-min Rain = 0
KMC1 081557Z 36010KT 02/02 A3026 RMK A01 T00210019  RH  098%=      5-min Rain = 0
KMC1 081558Z 36012KT 02/02 A3026 RMK A01 T00220019  RH  098%=      5-min Rain = 0
KMC1 081559Z 33009G14KT 02/02 A3026 RMK A01 T00220019  RH  098%=      5-min Rain = 0
KMC1 081600Z 34008KT 02/02 A3026 RMK A01 T00220018  RH  098%=      5-min Rain = 0
KMC1 081601Z 34009KT 02/02 A3027 RMK A01 T00220018  RH  097%=      5-min Rain = 0
KMC1 081602Z 35009KT 02/02 A3027 RMK A01 T00210017  RH  097%=      5-min Rain = 0
KMC1 081603Z 34007KT 02/02 A3027 RMK A01 T00210017  RH  097%=      5-min Rain = 0
KMC1 081604Z 34009KT 02/02 A3027 RMK A01 T00220019  RH  098%=      5-min Rain = 0
KMC1 081605Z 35012KT 02/02 A3027 RMK A01 T00220019  RH  097%=      5-min Rain = 0
KMC1 081606Z 34009G14KT 02/02 A3027 RMK A01 T00220018  RH  097%=      5-min Rain = 0
KMC1 081607Z 33008KT 02/02 A3027 RMK A01 T00220018  RH  097%=      5-min Rain = 0
KMC1 081608Z 35008KT 02/02 A3027 RMK A01 T00220018  RH  097%=      5-min Rain = 0
KMC1 081609Z 34009KT 02/02 A3027 RMK A01 T00220019  RH  097%=      5-min Rain = 0
KMC1 081610Z 34008KT 02/02 A3027 RMK A01 T00220018  RH  097%=      5-min Rain = 0
KMC1 081611Z 34006KT 02/02 A3027 RMK A01 T00220019  RH  098%=      5-min Rain = 0
KMC1 081612Z 34007KT 02/02 A3027 RMK A01 T00240021  RH  098%=      5-min Rain = 0
KMC1 081613Z 34008KT 02/02 A3026 RMK A01 T00240021  RH  098%=      5-min Rain = 0
KMC1 081614Z 35007KT 02/02 A3026 RMK A01 T00240021  RH  098%=      5-min Rain = 0
KMC1 081615Z 35007KT 02/02 A3026 RMK A01 T00240022  RH  098%=      5-min Rain = 0
KMC1 081616Z 35008KT 03/02 A3027 RMK A01 T00250023  RH  098%=      5-min Rain = 0
KMC1 081617Z 33009KT 03/02 A3027 RMK A01 T00250022  RH  098%=      5-min Rain = 0
KMC1 081618Z 33011KT 02/02 A3027 RMK A01 T00240021  RH  098%=      5-min Rain = 0
KMC1 081619Z 34010KT 02/02 A3027 RMK A01 T00240021  RH  098%=      5-min Rain = 0
KMC1 081620Z 33011KT 02/02 A3027 RMK A01 T00240021  RH  098%=      5-min Rain = 0
KMC1 081621Z 34009KT 03/02 A3027 RMK A01 T00250021  RH  097%=      5-min Rain = 0
KMC1 081622Z 34010KT 02/02 A3027 RMK A01 T00240020  RH  097%=      5-min Rain = 0
KMC1 081623Z 33008KT 02/02 A3027 RMK A01 T00240020  RH  097%=      5-min Rain = 0
KMC1 081624Z 33010KT 02/02 A3027 RMK A01 T00240019  RH  097%=      5-min Rain = 0
KMC1 081625Z 33006KT 02/02 A3027 RMK A01 T00240018  RH  096%=      5-min Rain = 0
KMC1 081626Z 31009KT 02/02 A3027 RMK A01 T00240019  RH  097%=      5-min Rain = 0
KMC1 081627Z 33010KT 02/02 A3027 RMK A01 T00240020  RH  097%=      5-min Rain = 0
KMC1 081628Z 32008KT 02/02 A3027 RMK A01 T00240020  RH  097%=      5-min Rain = 0
KMC1 081629Z 33011G16KT 02/02 A3027 RMK A01 T00230018  RH  096%=      5-min Rain = 0
KMC1 081630Z 32012KT 02/02 A3027 RMK A01 T00230017  RH  096%=      5-min Rain = 0
KMC1 081631Z 33010KT 02/02 A3027 RMK A01 T00230017  RH  096%=      5-min Rain = 0
KMC1 081632Z 32011KT 02/02 A3027 RMK A01 T00220016  RH  096%=      5-min Rain = 0
KMC1 081633Z 32009KT 02/02 A3027 RMK A01 T00220016  RH  096%=      5-min Rain = 0
KMC1 081634Z 33010G15KT 02/02 A3027 RMK A01 T00220016  RH  096%=      5-min Rain = 0
KMC1 081635Z 33008KT 02/02 A3027 RMK A01 T00220016  RH  096%=      5-min Rain = 0
KMC1 081636Z 33007KT 02/02 A3027 RMK A01 T00220017  RH  096%=      5-min Rain = 0
KMC1 081637Z 32010KT 02/02 A3027 RMK A01 T00230017  RH  096%=      5-min Rain = 0
KMC1 081638Z 33008KT 02/02 A3027 RMK A01 T00230017  RH  096%=      5-min Rain = 0
KMC1 081639Z 33007KT 02/02 A3027 RMK A01 T00230017  RH  096%=      5-min Rain = 0
KMC1 081640Z 33010KT 02/02 A3027 RMK A01 T00230018  RH  096%=      5-min Rain = 0
KMC1 081641Z 34008KT 02/02 A3027 RMK A01 T00230018  RH  096%=      5-min Rain = 0
KMC1 081642Z 34007KT 02/02 A3027 RMK A01 T00230017  RH  096%=      5-min Rain = 0
KMC1 081643Z 34009KT 02/02 A3027 RMK A01 T00230018  RH  096%=      5-min Rain = 0
KMC1 081644Z 35009KT 02/02 A3027 RMK A01 T00240018  RH  096%=      5-min Rain = 0
KMC1 081645Z 34008KT 02/02 A3027 RMK A01 T00240018  RH  096%=      5-min Rain = 0
KMC1 081646Z 33005KT 02/02 A3027 RMK A01 T00240018  RH  096%=      5-min Rain = 0
KMC1 081647Z 33005KT 02/02 A3027 RMK A01 T00240019  RH  096%=      5-min Rain = 0
KMC1 081648Z 32005KT 02/02 A3027 RMK A01 T00240019  RH  096%=      5-min Rain = 0
KMC1 081649Z 32007KT 03/02 A3027 RMK A01 T00250021  RH  097%=      5-min Rain = 0
KMC1 081650Z 33007KT 03/02 A3027 RMK A01 T00250021  RH  097%=      5-min Rain = 0
KMC1 081651Z 32008KT 03/02 A3027 RMK A01 T00250021  RH  097%=      5-min Rain = 0
KMC1 081652Z 33010KT 03/02 A3027 RMK A01 T00250021  RH  097%=      5-min Rain = 0
KMC1 081653Z 34009KT 03/02 A3027 RMK A01 T00260021  RH  097%=      5-min Rain = 0
KMC1 081654Z 33006KT 03/02 A3027 RMK A01 T00260021  RH  097%=      5-min Rain = 0
KMC1 081655Z 32009KT 03/02 A3027 RMK A01 T00270023  RH  098%=      5-min Rain = 0
KMC1 081656Z 32011KT 03/02 A3027 RMK A01 T00270024  RH  098%=      5-min Rain = 0
KMC1 081657Z 31008KT 03/02 A3027 RMK A01 T00270023  RH  097%=      5-min Rain = 0
KMC1 081658Z 31009KT 03/02 A3027 RMK A01 T00260022  RH  097%=      5-min Rain = 0
KMC1 081659Z 31008KT 03/02 A3027 RMK A01 T00260022  RH  097%=      5-min Rain = 0
KMC1 081700Z 32006KT 03/02 A3027 RMK A01 T00270023  RH  097%=      5-min Rain = 0
KMC1 081701Z 32006KT 03/02 A3027 RMK A01 T00270023  RH  097%=      5-min Rain = 0
KMC1 081702Z 34006KT 03/02 A3027 RMK A01 T00270023  RH  097%=      5-min Rain = 0
KMC1 081703Z 33008KT 03/02 A3027 RMK A01 T00270023  RH  098%=      5-min Rain = 0
KMC1 081704Z 33006KT 03/02 A3027 RMK A01 T00270023  RH  097%=      5-min Rain = 0
KMC1 081705Z 33008KT 03/02 A3027 RMK A01 T00270023  RH  097%=      5-min Rain = 0
KMC1 081706Z 33008KT 03/02 A3027 RMK A01 T00270022  RH  097%=      5-min Rain = 0
KMC1 081707Z 34007G12KT 03/02 A3027 RMK A01 T00260021  RH  097%=      5-min Rain = 0
KMC1 081708Z 35009KT 03/02 A3027 RMK A01 T00260021  RH  097%=      5-min Rain = 0
KMC1 081709Z 35008KT 03/02 A3027 RMK A01 T00270022  RH  097%=      5-min Rain = 0
KMC1 081710Z 33006KT 03/02 A3027 RMK A01 T00270022  RH  096%=      5-min Rain = 0
KMC1 081711Z 33005KT 03/02 A3027 RMK A01 T00270023  RH  097%=      5-min Rain = 0
KMC1 081712Z 33006KT 03/02 A3027 RMK A01 T00280024  RH  097%=      5-min Rain = 0
KMC1 081713Z 33008KT 03/03 A3027 RMK A01 T00290025  RH  097%=      5-min Rain = 0
KMC1 081714Z 32008KT 03/02 A3027 RMK A01 T00290024  RH  096%=      5-min Rain = 0
KMC1 081715Z 33008KT 03/02 A3027 RMK A01 T00280022  RH  096%=      5-min Rain = 0
KMC1 081716Z 32006KT 03/02 A3027 RMK A01 T00280023  RH  096%=      5-min Rain = 0
KMC1 081717Z 32007KT 03/02 A3027 RMK A01 T00280023  RH  096%=      5-min Rain = 0
KMC1 081718Z 32006KT 03/02 A3027 RMK A01 T00280022  RH  096%=      5-min Rain = 0
KMC1 081719Z 32008KT 03/02 A3027 RMK A01 T00280022  RH  096%=      5-min Rain = 0
KMC1 081720Z 33010KT 03/02 A3027 RMK A01 T00280023  RH  096%=      5-min Rain = 0
KMC1 081721Z 33010KT 03/02 A3026 RMK A01 T00280023  RH  096%=      5-min Rain = 0
KMC1 081722Z 34008KT 03/02 A3026 RMK A01 T00280022  RH  096%=      5-min Rain = 0
KMC1 081723Z 34007KT 03/02 A3026 RMK A01 T00280023  RH  096%=      5-min Rain = 0
KMC1 081724Z 32007KT 03/02 A3026 RMK A01 T00290024  RH  097%=      5-min Rain = 0
KMC1 081725Z 33008KT 03/02 A3026 RMK A01 T00290024  RH  097%=      5-min Rain = 0
KMC1 081726Z 34007KT 03/02 A3026 RMK A01 T00290024  RH  097%=      5-min Rain = 0
KMC1 081727Z 34009KT 03/03 A3027 RMK A01 T00300026  RH  097%=      5-min Rain = 0
KMC1 081728Z 32008KT 03/03 A3026 RMK A01 T00300025  RH  096%=      5-min Rain = 0
KMC1 081729Z 32008G13KT 03/03 A3026 RMK A01 T00300025  RH  097%=      5-min Rain = 0
KMC1 081730Z 32007KT 03/03 A3026 RMK A01 T00300025  RH  097%=      5-min Rain = 0
KMC1 081731Z 32008KT 03/03 A3026 RMK A01 T00310026  RH  097%=      5-min Rain = 0
KMC1 081732Z 31007KT 03/03 A3026 RMK A01 T00310027  RH  097%=      5-min Rain = 0
KMC1 081733Z 32007KT 03/03 A3026 RMK A01 T00310027  RH  097%=      5-min Rain = 0
KMC1 081734Z 32007KT 03/03 A3026 RMK A01 T00320028  RH  097%=      5-min Rain = 0
KMC1 081735Z 31008KT 03/03 A3026 RMK A01 T00320028  RH  097%=      5-min Rain = 0
KMC1 081736Z 31006KT 03/03 A3026 RMK A01 T00330029  RH  097%=      5-min Rain = 0
KMC1 081737Z 32004KT 03/03 A3026 RMK A01 T00320028  RH  097%=      5-min Rain = 0
KMC1 081738Z 34006KT 03/03 A3026 RMK A01 T00340030  RH  097%=      5-min Rain = 0
KMC1 081739Z 32005KT 03/03 A3026 RMK A01 T00340029  RH  097%=      5-min Rain = 0
KMC1 081740Z 33009KT 03/03 A3026 RMK A01 T00340029  RH  097%=      5-min Rain = 0
KMC1 081741Z 33008KT 03/03 A3026 RMK A01 T00330028  RH  096%=      5-min Rain = 0
KMC1 081742Z 33010KT 03/03 A3026 RMK A01 T00330027  RH  096%=      5-min Rain = 0
KMC1 081743Z 33007KT 03/03 A3026 RMK A01 T00320025  RH  095%=      5-min Rain = 0
KMC1 081744Z 33006KT 03/03 A3026 RMK A01 T00320025  RH  095%=      5-min Rain = 0
KMC1 081745Z 32007KT 03/03 A3026 RMK A01 T00330027  RH  096%=      5-min Rain = 0
KMC1 081746Z 32008KT 03/03 A3026 RMK A01 T00330027  RH  096%=      5-min Rain = 0
KMC1 081747Z 31010KT 03/03 A3026 RMK A01 T00330027  RH  096%=      5-min Rain = 0
KMC1 081748Z 31009KT 03/03 A3026 RMK A01 T00330027  RH  095%=      5-min Rain = 0
KMC1 081749Z 31009KT 03/03 A3026 RMK A01 T00330027  RH  096%=      5-min Rain = 0
KMC1 081750Z 31010KT 03/03 A3026 RMK A01 T00340027  RH  096%=      5-min Rain = 0
KMC1 081751Z 32009KT 03/03 A3026 RMK A01 T00340027  RH  095%=      5-min Rain = 0
KMC1 081752Z 32010KT 03/03 A3026 RMK A01 T00340026  RH  095%=      5-min Rain = 0
KMC1 081753Z 33008KT 03/03 A3026 RMK A01 T00330026  RH  095%=      5-min Rain = 0
KMC1 081754Z 32009KT 03/03 A3026 RMK A01 T00330026  RH  095%=      5-min Rain = 0
KMC1 081755Z 32006KT 03/03 A3026 RMK A01 T00330027  RH  095%=      5-min Rain = 0
KMC1 081756Z 31006KT 03/03 A3026 RMK A01 T00330027  RH  096%=      5-min Rain = 0
KMC1 081757Z 32009KT 03/03 A3026 RMK A01 T00330027  RH  096%=      5-min Rain = 0
KMC1 081758Z 31008KT 03/03 A3026 RMK A01 T00330027  RH  096%=      5-min Rain = 0
KMC1 081759Z 32009KT 03/03 A3026 RMK A01 T00330027  RH  096%=      5-min Rain = 0
KMC1 081800Z 32007KT 03/03 A3026 RMK A01 T00330027  RH  096%=      5-min Rain = 0
KMC1 081801Z 31006KT 03/03 A3026 RMK A01 T00330027  RH  096%=      5-min Rain = 0
KMC1 081802Z 32005KT 03/03 A3026 RMK A01 T00330028  RH  096%=      5-min Rain = 0
KMC1 081803Z 32008KT 03/03 A3026 RMK A01 T00340029  RH  097%=      5-min Rain = 0
KMC1 081804Z 32007KT 03/03 A3025 RMK A01 T00340029  RH  096%=      5-min Rain = 0
KMC1 081805Z 31006KT 03/03 A3025 RMK A01 T00340028  RH  096%=      5-min Rain = 0
KMC1 081806Z 32008KT 03/03 A3025 RMK A01 T00340029  RH  096%=      5-min Rain = 0
KMC1 081807Z 31008KT 03/03 A3025 RMK A01 T00340028  RH  096%=      5-min Rain = 0
KMC1 081808Z 31008KT 03/03 A3025 RMK A01 T00340028  RH  096%=      5-min Rain = 0
KMC1 081809Z 31007KT 03/03 A3025 RMK A01 T00340028  RH  096%=      5-min Rain = 0
KMC1 081810Z 32008KT 03/03 A3025 RMK A01 T00340029  RH  096%=      5-min Rain = 0
KMC1 081811Z 31007KT 04/03 A3025 RMK A01 T00350030  RH  097%=      5-min Rain = 0
KMC1 081812Z 31009KT 04/03 A3025 RMK A01 T00360031  RH  097%=      5-min Rain = 0
KMC1 081813Z 31008KT 04/03 A3025 RMK A01 T00350029  RH  096%=      5-min Rain = 0
KMC1 081814Z 31009KT 04/03 A3025 RMK A01 T00350029  RH  095%=      5-min Rain = 0
KMC1 081815Z 32008KT 04/03 A3025 RMK A01 T00350028  RH  095%=      5-min Rain = 0
KMC1 081816Z 32010KT 04/03 A3025 RMK A01 T00350028  RH  095%=      5-min Rain = 0
KMC1 081817Z 31009KT 04/03 A3025 RMK A01 T00350028  RH  095%=      5-min Rain = 0
KMC1 081818Z 32007KT 04/03 A3025 RMK A01 T00360030  RH  096%=      5-min Rain = 0
KMC1 081819Z 33009KT 04/03 A3025 RMK A01 T00370031  RH  096%=      5-min Rain = 0
KMC1 081820Z 32007KT 04/03 A3025 RMK A01 T00360029  RH  095%=      5-min Rain = 0
KMC1 081821Z 33009KT 04/03 A3025 RMK A01 T00360029  RH  095%=      5-min Rain = 0
KMC1 081822Z 34008KT 04/03 A3025 RMK A01 T00370031  RH  095%=      5-min Rain = 0
KMC1 081823Z 33007KT 04/03 A3025 RMK A01 T00370030  RH  095%=      5-min Rain = 0
KMC1 081824Z 33009KT 04/03 A3025 RMK A01 T00370029  RH  095%=      5-min Rain = 0
KMC1 081825Z 33007KT 04/03 A3025 RMK A01 T00370029  RH  094%=      5-min Rain = 0
KMC1 081826Z 33005KT 04/03 A3025 RMK A01 T00370030  RH  095%=      5-min Rain = 0
KMC1 081827Z 32007KT 04/03 A3025 RMK A01 T00380031  RH  095%=      5-min Rain = 0
KMC1 081828Z 32008KT 04/03 A3025 RMK A01 T00380032  RH  096%=      5-min Rain = 0
KMC1 081829Z 32008KT 04/03 A3025 RMK A01 T00390032  RH  095%=      5-min Rain = 0
KMC1 081830Z 33008KT 04/03 A3025 RMK A01 T00390031  RH  095%=      5-min Rain = 0
KMC1 081831Z 30008KT 04/03 A3025 RMK A01 T00390032  RH  095%=      5-min Rain = 0
KMC1 081832Z 31007KT 04/03 A3025 RMK A01 T00400034  RH  096%=      5-min Rain = 0
KMC1 081833Z 32006KT 04/04 A3025 RMK A01 T00410035  RH  096%=      5-min Rain = 0
KMC1 081834Z 31006KT 04/03 A3025 RMK A01 T00410034  RH  095%=      5-min Rain = 0
KMC1 081835Z 30006KT 04/03 A3025 RMK A01 T00400033  RH  095%=      5-min Rain = 0
KMC1 081836Z 31009KT 04/03 A3025 RMK A01 T00410034  RH  095%=      5-min Rain = 0
KMC1 081837Z 31008KT 04/03 A3024 RMK A01 T00400033  RH  095%=      5-min Rain = 0
KMC1 081838Z 32008KT 04/03 A3024 RMK A01 T00400032  RH  095%=      5-min Rain = 0
KMC1 081839Z 31009KT 04/03 A3024 RMK A01 T00400031  RH  094%=      5-min Rain = 0
KMC1 081840Z 32008KT 04/03 A3024 RMK A01 T00390030  RH  094%=      5-min Rain = 0
KMC1 081841Z 31007KT 04/03 A3024 RMK A01 T00390031  RH  095%=      5-min Rain = 0
KMC1 081842Z 32008KT 04/03 A3024 RMK A01 T00390032  RH  095%=      5-min Rain = 0
KMC1 081843Z 32009KT 04/03 A3024 RMK A01 T00390031  RH  095%=      5-min Rain = 0
KMC1 081844Z 33008KT 04/03 A3024 RMK A01 T00390031  RH  095%=      5-min Rain = 0
KMC1 081845Z 32007KT 04/03 A3024 RMK A01 T00400032  RH  095%=      5-min Rain = 0
KMC1 081846Z 33009KT 04/03 A3024 RMK A01 T00400032  RH  095%=      5-min Rain = 0
KMC1 081847Z 32009KT 04/03 A3024 RMK A01 T00400031  RH  094%=      5-min Rain = 0
KMC1 081848Z 33009KT 04/03 A3024 RMK A01 T00390031  RH  094%=      5-min Rain = 0
KMC1 081849Z 32007KT 04/03 A3024 RMK A01 T00390030  RH  094%=      5-min Rain = 0
KMC1 081850Z 33010KT 04/03 A3024 RMK A01 T00390031  RH  094%=      5-min Rain = 0
KMC1 081851Z 32010KT 04/03 A3024 RMK A01 T00390030  RH  094%=      5-min Rain = 0
KMC1 081852Z 31011KT 04/03 A3023 RMK A01 T00400032  RH  095%=      5-min Rain = 0
KMC1 081853Z 31009KT 04/03 A3023 RMK A01 T00390031  RH  094%=      5-min Rain = 0
KMC1 081854Z 31008KT 04/03 A3023 RMK A01 T00400032  RH  094%=      5-min Rain = 0
KMC1 081855Z 32009KT 04/03 A3023 RMK A01 T00400032  RH  095%=      5-min Rain = 0
KMC1 081856Z 32007KT 04/03 A3023 RMK A01 T00400032  RH  094%=      5-min Rain = 0
KMC1 081857Z 32009KT 04/03 A3023 RMK A01 T00400032  RH  094%=      5-min Rain = 0
KMC1 081858Z 32009KT 04/03 A3023 RMK A01 T00400031  RH  094%=      5-min Rain = 0
KMC1 081859Z 32008KT 04/03 A3023 RMK A01 T00400032  RH  094%=      5-min Rain = 0
KMC1 081900Z 32007G13KT 04/03 A3023 RMK A01 T00400032  RH  095%=      5-min Rain = 0
KMC1 081901Z 33012KT 04/03 A3023 RMK A01 T00410032  RH  094%=      5-min Rain = 0
KMC1 081902Z 33011KT 04/03 A3023 RMK A01 T00400030  RH  093%=      5-min Rain = 0
KMC1 081903Z 34009KT 04/03 A3023 RMK A01 T00400030  RH  093%=      5-min Rain = 0
KMC1 081904Z 32009KT 04/03 A3023 RMK A01 T00400030  RH  094%=      5-min Rain = 0
KMC1 081905Z 32009KT 04/03 A3023 RMK A01 T00410032  RH  094%=      5-min Rain = 0
KMC1 081906Z 33010KT 04/03 A3023 RMK A01 T00410032  RH  094%=      5-min Rain = 0
KMC1 081907Z 32009KT 04/03 A3023 RMK A01 T00410032  RH  094%=      5-min Rain = 0
KMC1 081908Z 32008KT 04/03 A3023 RMK A01 T00420033  RH  094%=      5-min Rain = 0
KMC1 081909Z 31009KT 04/03 A3023 RMK A01 T00420032  RH  094%=      5-min Rain = 0
KMC1 081910Z 32008KT 04/03 A3023 RMK A01 T00420032  RH  093%=      5-min Rain = 0
KMC1 081911Z 33007KT 04/03 A3023 RMK A01 T00420033  RH  094%=      5-min Rain = 0
KMC1 081912Z 34006KT 04/03 A3023 RMK A01 T00420033  RH  094%=      5-min Rain = 0
KMC1 081913Z 34006KT 04/03 A3023 RMK A01 T00420034  RH  094%=      5-min Rain = 0
KMC1 081914Z 34008KT 04/04 A3023 RMK A01 T00430035  RH  094%=      5-min Rain = 0
KMC1 081915Z 34009KT 04/03 A3023 RMK A01 T00430033  RH  094%=      5-min Rain = 0
KMC1 081916Z 33008KT 04/03 A3023 RMK A01 T00420032  RH  093%=      5-min Rain = 0
KMC1 081917Z 33009KT 04/03 A3023 RMK A01 T00420033  RH  094%=      5-min Rain = 0
KMC1 081918Z 33008G13KT 04/03 A3023 RMK A01 T00420033  RH  094%=      5-min Rain = 0
KMC1 081919Z 33010KT 04/03 A3023 RMK A01 T00420032  RH  093%=      5-min Rain = 0
KMC1 081920Z 33009KT 04/03 A3023 RMK A01 T00420031  RH  093%=      5-min Rain = 0
KMC1 081921Z 33009KT 04/03 A3023 RMK A01 T00420031  RH  093%=      5-min Rain = 0
KMC1 081922Z 33007KT 04/03 A3023 RMK A01 T00420032  RH  093%=      5-min Rain = 0
KMC1 081923Z 33008KT 04/03 A3023 RMK A01 T00420033  RH  094%=      5-min Rain = 0
KMC1 081924Z 33009KT 04/03 A3023 RMK A01 T00420033  RH  094%=      5-min Rain = 0
KMC1 081925Z 33009G14KT 04/03 A3023 RMK A01 T00430033  RH  094%=      5-min Rain = 0
KMC1 081926Z 34009KT 04/03 A3023 RMK A01 T00430033  RH  093%=      5-min Rain = 0
KMC1 081927Z 32007KT 04/03 A3023 RMK A01 T00430033  RH  093%=      5-min Rain = 0
KMC1 081928Z 34008KT 04/03 A3023 RMK A01 T00430033  RH  094%=      5-min Rain = 0
KMC1 081929Z 32008KT 04/03 A3023 RMK A01 T00430034  RH  094%=      5-min Rain = 0
KMC1 081930Z 32009KT 04/03 A3023 RMK A01 T00430034  RH  093%=      5-min Rain = 0
KMC1 081931Z 31008KT 04/03 A3023 RMK A01 T00430034  RH  094%=      5-min Rain = 0
KMC1 081932Z 30009KT 04/03 A3023 RMK A01 T00430034  RH  094%=      5-min Rain = 0
KMC1 081933Z 31011KT 04/04 A3023 RMK A01 T00430035  RH  094%=      5-min Rain = 0
KMC1 081934Z 31010KT 04/04 A3023 RMK A01 T00440035  RH  094%=      5-min Rain = 0
KMC1 081935Z 31010KT 04/03 A3023 RMK A01 T00430033  RH  093%=      5-min Rain = 0
KMC1 081936Z 30008KT 04/03 A3023 RMK A01 T00420033  RH  093%=      5-min Rain = 0
KMC1 081937Z 31009KT 04/03 A3023 RMK A01 T00430034  RH  094%=      5-min Rain = 0
KMC1 081938Z 30010KT 04/03 A3023 RMK A01 T00420034  RH  095%=      5-min Rain = 0
KMC1 081939Z 31011KT 04/04 A3023 RMK A01 T00430035  RH  095%=      5-min Rain = 0
KMC1 081940Z 31010KT 04/03 A3023 RMK A01 T00430034  RH  094%=      5-min Rain = 0
KMC1 081941Z 31013KT 04/03 A3023 RMK A01 T00430033  RH  094%=      5-min Rain = 0
KMC1 081942Z 32010KT 04/03 A3023 RMK A01 T00420032  RH  093%=      5-min Rain = 0
KMC1 081943Z 31010KT 04/03 A3023 RMK A01 T00420032  RH  093%=      5-min Rain = 0
KMC1 081944Z 32009KT 04/03 A3023 RMK A01 T00420033  RH  094%=      5-min Rain = 0
KMC1 081945Z 31010KT 04/03 A3023 RMK A01 T00420033  RH  094%=      5-min Rain = 0
KMC1 081946Z 33007KT 04/03 A3023 RMK A01 T00420033  RH  094%=      5-min Rain = 0
KMC1 081947Z 33010KT 04/03 A3023 RMK A01 T00420033  RH  094%=      5-min Rain = 0
KMC1 081948Z 32007KT 04/03 A3023 RMK A01 T00420033  RH  094%=      5-min Rain = 0
KMC1 081949Z 31005KT 04/03 A3023 RMK A01 T00430034  RH  094%=      5-min Rain = 0
KMC1 081950Z 32007KT 04/04 A3023 RMK A01 T00440036  RH  095%=      5-min Rain = 0
KMC1 081951Z 31009KT 04/04 A3023 RMK A01 T00440036  RH  095%=      5-min Rain = 0
KMC1 081952Z 30008KT 04/03 A3023 RMK A01 T00430034  RH  094%=      5-min Rain = 0
KMC1 081953Z 31010KT 04/04 A3023 RMK A01 T00430035  RH  095%=      5-min Rain = 0
KMC1 081954Z 31008KT 04/04 A3023 RMK A01 T00430035  RH  095%=      5-min Rain = 0
KMC1 081955Z 32009KT 04/04 A3023 RMK A01 T00430036  RH  095%=      5-min Rain = 0
KMC1 081956Z 31007KT 04/04 A3023 RMK A01 T00430035  RH  095%=      5-min Rain = 0
KMC1 081957Z 30007KT 04/04 A3023 RMK A01 T00420035  RH  095%=      5-min Rain = 0
KMC1 081958Z 31007KT 04/04 A3023 RMK A01 T00430036  RH  096%=      5-min Rain = 0
KMC1 081959Z 31010KT 04/04 A3023 RMK A01 T00430037  RH  095%=      5-min Rain = 0
KMC1 082000Z 31010KT 04/04 A3023 RMK A01 T00430035  RH  095%=      5-min Rain = 0
KMC1 082001Z 32009KT 04/04 A3023 RMK A01 T00420035  RH  095%=      5-min Rain = 0
KMC1 082002Z 30010KT 04/04 A3023 RMK A01 T00420035  RH  095%=      5-min Rain = 0
KMC1 082003Z 31009KT 04/03 A3023 RMK A01 T00420034  RH  095%=      5-min Rain = 0
KMC1 082004Z 31007KT 04/03 A3023 RMK A01 T00420034  RH  095%=      5-min Rain = 0
KMC1 082005Z 33008KT 04/03 A3023 RMK A01 T00420034  RH  095%=      5-min Rain = 0
KMC1 082006Z 33009KT 04/04 A3023 RMK A01 T00420035  RH  095%=      5-min Rain = 0
KMC1 082007Z 33010KT 04/03 A3022 RMK A01 T00420034  RH  095%=      5-min Rain = 0
KMC1 082008Z 33008KT 04/03 A3022 RMK A01 T00420034  RH  094%=      5-min Rain = 0
KMC1 082009Z 34009KT 04/03 A3022 RMK A01 T00420034  RH  094%=      5-min Rain = 0
KMC1 082010Z 33010KT 04/03 A3022 RMK A01 T00420033  RH  094%=      5-min Rain = 0
KMC1 082011Z 30009KT 04/03 A3022 RMK A01 T00420033  RH  094%=      5-min Rain = 0
KMC1 082012Z 30008KT 04/04 A3022 RMK A01 T00420035  RH  095%=      5-min Rain = 0
KMC1 082013Z 31007G12KT 04/04 A3023 RMK A01 T00430037  RH  095%=      5-min Rain = 0
KMC1 082014Z 30009KT 04/04 A3022 RMK A01 T00430036  RH  095%=      5-min Rain = 0
KMC1 082015Z 31006KT 04/04 A3023 RMK A01 T00430035  RH  095%=      5-min Rain = 0
KMC1 082016Z 32008KT 04/04 A3022 RMK A01 T00440036  RH  095%=      5-min Rain = 0
KMC1 082017Z 31008KT 04/04 A3023 RMK A01 T00440036  RH  094%=      5-min Rain = 0
KMC1 082018Z 31012KT 04/04 A3022 RMK A01 T00440035  RH  094%=      5-min Rain = 0
KMC1 082019Z 31008KT 05/03 A3023 RMK A01 T00450034  RH  093%=      5-min Rain = 0
KMC1 082020Z 31009KT 04/03 A3023 RMK A01 T00440033  RH  093%=      5-min Rain = 0
KMC1 082021Z 31010KT 04/03 A3023 RMK A01 T00440033  RH  093%=      5-min Rain = 0
KMC1 082022Z 32009KT 04/03 A3023 RMK A01 T00440032  RH  092%=      5-min Rain = 0
KMC1 082023Z 32007KT 04/03 A3023 RMK A01 T00440032  RH  092%=      5-min Rain = 0
KMC1 082024Z 32007KT 04/03 A3023 RMK A01 T00440033  RH  093%=      5-min Rain = 0
KMC1 082025Z 31007KT 04/03 A3023 RMK A01 T00440034  RH  093%=      5-min Rain = 0
KMC1 082026Z 30010KT 04/03 A3023 RMK A01 T00440034  RH  093%=      5-min Rain = 0
KMC1 082027Z 32008KT 04/03 A3023 RMK A01 T00440033  RH  093%=      5-min Rain = 0
KMC1 082028Z 32009KT 04/03 A3023 RMK A01 T00440033  RH  093%=      5-min Rain = 0
KMC1 082029Z 33011KT 04/03 A3023 RMK A01 T00430032  RH  092%=      5-min Rain = 0
KMC1 082030Z 32008KT 04/03 A3023 RMK A01 T00420031  RH  092%=      5-min Rain = 0
KMC1 082031Z 32009KT 04/03 A3023 RMK A01 T00420032  RH  093%=      5-min Rain = 0
KMC1 082032Z 32010KT 04/03 A3023 RMK A01 T00430032  RH  093%=      5-min Rain = 0
KMC1 082033Z 33011KT 04/03 A3023 RMK A01 T00420032  RH  093%=      5-min Rain = 0
KMC1 082034Z 33011KT 04/03 A3023 RMK A01 T00420032  RH  093%=      5-min Rain = 0
KMC1 082035Z 32009KT 04/03 A3023 RMK A01 T00410032  RH  093%=      5-min Rain = 0
KMC1 082036Z 31010G15KT 04/03 A3023 RMK A01 T00410032  RH  094%=      5-min Rain = 0
KMC1 082037Z 31010KT 04/03 A3023 RMK A01 T00420033  RH  094%=      5-min Rain = 0
KMC1 082038Z 31009KT 04/03 A3023 RMK A01 T00410032  RH  094%=      5-min Rain = 0
KMC1 082039Z 30012KT 04/03 A3023 RMK A01 T00410032  RH  094%=      5-min Rain = 0
KMC1 082040Z 30010KT 04/03 A3023 RMK A01 T00400032  RH  094%=      5-min Rain = 0
KMC1 082041Z 30009KT 04/03 A3023 RMK A01 T00400032  RH  094%=      5-min Rain = 0
KMC1 082042Z 31011KT 04/03 A3023 RMK A01 T00400032  RH  095%=      5-min Rain = 0
KMC1 082043Z 31009KT 04/03 A3023 RMK A01 T00400031  RH  094%=      5-min Rain = 0
KMC1 082044Z 31007KT 04/03 A3023 RMK A01 T00390032  RH  095%=      5-min Rain = 0
KMC1 082045Z 30009KT 04/03 A3023 RMK A01 T00400033  RH  095%=      5-min Rain = 0
KMC1 082046Z 30009KT 04/03 A3023 RMK A01 T00400033  RH  095%=      5-min Rain = 0
KMC1 082047Z 31007KT 04/03 A3023 RMK A01 T00400032  RH  095%=      5-min Rain = 0
KMC1 082048Z 31007KT 04/03 A3023 RMK A01 T00400032  RH  095%=      5-min Rain = 0
KMC1 082049Z 32008KT 04/03 A3023 RMK A01 T00400032  RH  095%=      5-min Rain = 0
KMC1 082050Z 33006KT 04/03 A3023 RMK A01 T00400031  RH  094%=      5-min Rain = 0
KMC1 082051Z 32006KT 04/03 A3023 RMK A01 T00400032  RH  094%=      5-min Rain = 0
KMC1 082052Z 31007KT 04/03 A3023 RMK A01 T00400032  RH  094%=      5-min Rain = 0
KMC1 082053Z 31009KT 04/03 A3023 RMK A01 T00410033  RH  094%=      5-min Rain = 0
KMC1 082054Z 32010KT 04/03 A3023 RMK A01 T00410032  RH  094%=      5-min Rain = 0
KMC1 082055Z 32010KT 04/03 A3023 RMK A01 T00410032  RH  094%=      5-min Rain = 0
KMC1 082056Z 32006KT 04/03 A3023 RMK A01 T00410032  RH  094%=      5-min Rain = 0
KMC1 082057Z 31009G14KT 04/03 A3024 RMK A01 T00410032  RH  094%=      5-min Rain = 0
KMC1 082058Z 31012KT 04/03 A3024 RMK A01 T00410032  RH  094%=      5-min Rain = 0
KMC1 082059Z 31012KT 04/03 A3024 RMK A01 T00410031  RH  094%=      5-min Rain = 0
KMC1 082100Z 31009KT 04/03 A3023 RMK A01 T00400030  RH  093%=      5-min Rain = 0
KMC1 082101Z 31009KT 04/03 A3023 RMK A01 T00390030  RH  093%=      5-min Rain = 0
KMC1 082102Z 31012KT 04/03 A3023 RMK A01 T00400030  RH  094%=      5-min Rain = 0
KMC1 082103Z 31009G14KT 04/03 A3023 RMK A01 T00390030  RH  094%=      5-min Rain = 0
KMC1 082104Z 31008KT 04/03 A3023 RMK A01 T00400031  RH  094%=      5-min Rain = 0
KMC1 082105Z 31009KT 04/03 A3023 RMK A01 T00400031  RH  094%=      5-min Rain = 0
KMC1 082106Z 31011KT 04/03 A3023 RMK A01 T00400031  RH  094%=      5-min Rain = 0
KMC1 082107Z 30011KT 04/03 A3023 RMK A01 T00400031  RH  094%=      5-min Rain = 0
KMC1 082108Z 31011KT 04/03 A3023 RMK A01 T00400031  RH  094%=      5-min Rain = 0
KMC1 082109Z 32010KT 04/03 A3023 RMK A01 T00390030  RH  093%=      5-min Rain = 0
KMC1 082110Z 32013KT 04/03 A3023 RMK A01 T00390029  RH  093%=      5-min Rain = 0
KMC1 082111Z 31010KT 04/03 A3023 RMK A01 T00390029  RH  093%=      5-min Rain = 0
KMC1 082112Z 31011KT 04/03 A3023 RMK A01 T00390030  RH  094%=      5-min Rain = 0
KMC1 082113Z 31011KT 04/03 A3023 RMK A01 T00390030  RH  094%=      5-min Rain = 0
KMC1 082114Z 32009KT 04/03 A3023 RMK A01 T00390030  RH  094%=      5-min Rain = 0
KMC1 082115Z 32009KT 04/03 A3023 RMK A01 T00390030  RH  094%=      5-min Rain = 0
KMC1 082116Z 32009KT 04/03 A3023 RMK A01 T00390029  RH  094%=      5-min Rain = 0
KMC1 082117Z 32007KT 04/03 A3023 RMK A01 T00390029  RH  094%=      5-min Rain = 0
KMC1 082118Z 33010G16KT 04/03 A3023 RMK A01 T00390030  RH  094%=      5-min Rain = 0
KMC1 082119Z 32011KT 04/03 A3023 RMK A01 T00390029  RH  093%=      5-min Rain = 0
KMC1 082120Z 32009KT 04/03 A3023 RMK A01 T00390029  RH  093%=      5-min Rain = 0
KMC1 082121Z 31009KT 04/03 A3023 RMK A01 T00390028  RH  093%=      5-min Rain = 0
KMC1 082122Z 31008KT 04/03 A3023 RMK A01 T00390029  RH  093%=      5-min Rain = 0
KMC1 082123Z 32008KT 04/03 A3023 RMK A01 T00400029  RH  093%=      5-min Rain = 0
KMC1 082124Z 32008G13KT 04/03 A3023 RMK A01 T00400030  RH  093%=      5-min Rain = 0
KMC1 082125Z 32009KT 04/03 A3023 RMK A01 T00400030  RH  093%=      5-min Rain = 0
KMC1 082126Z 32009KT 04/03 A3023 RMK A01 T00400029  RH  092%=      5-min Rain = 0
KMC1 082127Z 31008KT 04/03 A3023 RMK A01 T00400029  RH  092%=      5-min Rain = 0
KMC1 082128Z 31008KT 04/03 A3023 RMK A01 T00410029  RH  092%=      5-min Rain = 0
KMC1 082129Z 31009KT 04/03 A3023 RMK A01 T00410029  RH  092%=      5-min Rain = 0
KMC1 082130Z 31010KT 04/03 A3023 RMK A01 T00410029  RH  092%=      5-min Rain = 0
KMC1 082131Z 31010KT 04/03 A3023 RMK A01 T00400029  RH  092%=      5-min Rain = 0
KMC1 082132Z 31010KT 04/03 A3023 RMK A01 T00400028  RH  092%=      5-min Rain = 0
KMC1 082133Z 32008KT 04/03 A3023 RMK A01 T00410028  RH  092%=      5-min Rain = 0
KMC1 082134Z 32008G15KT 04/03 A3023 RMK A01 T00410028  RH  092%=      5-min Rain = 0
KMC1 082135Z 32012KT 04/03 A3023 RMK A01 T00410028  RH  092%=      5-min Rain = 0
KMC1 082136Z 32011KT 04/03 A3023 RMK A01 T00410027  RH  091%=      5-min Rain = 0
KMC1 082137Z 33010G16KT 04/03 A3023 RMK A01 T00400027  RH  091%=      5-min Rain = 0
KMC1 082138Z 33008KT 04/03 A3023 RMK A01 T00410027  RH  091%=      5-min Rain = 0
KMC1 082139Z 32008KT 04/03 A3023 RMK A01 T00400027  RH  091%=      5-min Rain = 0
KMC1 082140Z 32010KT 04/03 A3023 RMK A01 T00410027  RH  091%=      5-min Rain = 0
KMC1 082141Z 32008KT 04/03 A3023 RMK A01 T00410027  RH  091%=      5-min Rain = 0
KMC1 082142Z 33007KT 04/03 A3023 RMK A01 T00410027  RH  091%=      5-min Rain = 0
KMC1 082143Z 32008KT 04/03 A3023 RMK A01 T00410028  RH  091%=      5-min Rain = 0
KMC1 082144Z 33007KT 04/03 A3023 RMK A01 T00410028  RH  091%=      5-min Rain = 0
KMC1 082145Z 33007KT 04/03 A3023 RMK A01 T00410028  RH  091%=      5-min Rain = 0
KMC1 082146Z 32007KT 04/03 A3023 RMK A01 T00410028  RH  091%=      5-min Rain = 0
KMC1 082147Z 32007KT 04/03 A3023 RMK A01 T00410028  RH  091%=      5-min Rain = 0
KMC1 082148Z 31007KT 04/03 A3023 RMK A01 T00410028  RH  091%=      5-min Rain = 0
KMC1 082149Z 30008KT 04/03 A3024 RMK A01 T00410030  RH  092%=      5-min Rain = 0
KMC1 082150Z 32008KT 04/03 A3024 RMK A01 T00420030  RH  092%=      5-min Rain = 0
KMC1 082151Z 31006KT 04/03 A3024 RMK A01 T00420030  RH  092%=      5-min Rain = 0
KMC1 082152Z 31009KT 04/03 A3024 RMK A01 T00420030  RH  092%=      5-min Rain = 0
KMC1 082153Z 31007KT 04/03 A3024 RMK A01 T00420030  RH  092%=      5-min Rain = 0
KMC1 082154Z 30006KT 04/03 A3024 RMK A01 T00420031  RH  093%=      5-min Rain = 0
KMC1 082155Z 32009G15KT 04/03 A3024 RMK A01 T00420031  RH  093%=      5-min Rain = 0
KMC1 082156Z 31010KT 04/03 A3024 RMK A01 T00420030  RH  092%=      5-min Rain = 0
KMC1 082157Z 31011KT 04/03 A3024 RMK A01 T00410028  RH  091%=      5-min Rain = 0
KMC1 082158Z 31009KT 04/03 A3024 RMK A01 T00400026  RH  090%=      5-min Rain = 0
KMC1 082159Z 31009KT 04/03 A3024 RMK A01 T00400026  RH  091%=      5-min Rain = 0
KMC1 082200Z 31007KT 04/03 A3024 RMK A01 T00400026  RH  091%=      5-min Rain = 0
KMC1 082201Z 31006KT 04/03 A3024 RMK A01 T00400027  RH  091%=      5-min Rain = 0
KMC1 082202Z 32009KT 04/03 A3024 RMK A01 T00400028  RH  091%=      5-min Rain = 0
KMC1 082203Z 32009G14KT 04/03 A3024 RMK A01 T00400027  RH  091%=      5-min Rain = 0
KMC1 082204Z 31010KT 04/03 A3024 RMK A01 T00410027  RH  091%=      5-min Rain = 0
KMC1 082205Z 31007KT 04/03 A3024 RMK A01 T00410027  RH  091%=      5-min Rain = 0
KMC1 082206Z 32008KT 04/03 A3024 RMK A01 T00400027  RH  091%=      5-min Rain = 0
KMC1 082207Z 32009KT 04/03 A3024 RMK A01 T00400026  RH  091%=      5-min Rain = 0
KMC1 082208Z 32007KT 04/03 A3024 RMK A01 T00400026  RH  090%=      5-min Rain = 0
KMC1 082209Z 33007KT 04/03 A3024 RMK A01 T00400026  RH  091%=      5-min Rain = 0
KMC1 082210Z 31006KT 04/03 A3024 RMK A01 T00400026  RH  091%=      5-min Rain = 0
KMC1 082211Z 31008KT 04/03 A3024 RMK A01 T00400026  RH  091%=      5-min Rain = 0
KMC1 082212Z 31008KT 04/03 A3024 RMK A01 T00400026  RH  091%=      5-min Rain = 0
KMC1 082213Z 31007KT 04/03 A3024 RMK A01 T00400026  RH  091%=      5-min Rain = 0
KMC1 082214Z 31004KT 04/03 A3024 RMK A01 T00400026  RH  091%=      5-min Rain = 0
KMC1 082215Z 31007KT 04/03 A3024 RMK A01 T00400027  RH  091%=      5-min Rain = 0
KMC1 082216Z 31008KT 04/03 A3024 RMK A01 T00410028  RH  092%=      5-min Rain = 0
KMC1 082217Z 31007KT 04/03 A3024 RMK A01 T00410028  RH  091%=      5-min Rain = 0
KMC1 082218Z 32008KT 04/03 A3024 RMK A01 T00400027  RH  091%=      5-min Rain = 0
KMC1 082219Z 32009KT 04/03 A3024 RMK A01 T00400026  RH  091%=      5-min Rain = 0
KMC1 082220Z 32009KT 04/03 A3024 RMK A01 T00410026  RH  090%=      5-min Rain = 0
KMC1 082221Z 32008KT 04/03 A3024 RMK A01 T00400025  RH  090%=      5-min Rain = 0
KMC1 082222Z 31007KT 04/03 A3024 RMK A01 T00400026  RH  091%=      5-min Rain = 0
KMC1 082223Z 32008KT 04/03 A3024 RMK A01 T00400026  RH  091%=      5-min Rain = 0
KMC1 082224Z 31005KT 04/03 A3025 RMK A01 T00400027  RH  091%=      5-min Rain = 0
KMC1 082225Z 31005KT 04/03 A3025 RMK A01 T00400028  RH  092%=      5-min Rain = 0
KMC1 082226Z 32009KT 04/03 A3025 RMK A01 T00400029  RH  092%=      5-min Rain = 0
KMC1 082227Z 30007KT 04/03 A3025 RMK A01 T00400027  RH  092%=      5-min Rain = 0
KMC1 082228Z 31007KT 04/03 A3025 RMK A01 T00400028  RH  092%=      5-min Rain = 0
KMC1 082229Z 30010KT 04/03 A3024 RMK A01 T00400028  RH  092%=      5-min Rain = 0
KMC1 082230Z 31009KT 04/03 A3024 RMK A01 T00400028  RH  092%=      5-min Rain = 0
KMC1 082231Z 30009KT 04/03 A3024 RMK A01 T00390026  RH  091%=      5-min Rain = 0
KMC1 082232Z 31010KT 04/03 A3024 RMK A01 T00390026  RH  091%=      5-min Rain = 0
KMC1 082233Z 31011KT 04/03 A3024 RMK A01 T00390026  RH  092%=      5-min Rain = 0
KMC1 082234Z 31010KT 04/03 A3024 RMK A01 T00380026  RH  092%=      5-min Rain = 0
KMC1 082235Z 31007KT 04/03 A3024 RMK A01 T00380026  RH  092%=      5-min Rain = 0
KMC1 082236Z 32007G12KT 04/03 A3025 RMK A01 T00380026  RH  092%=      5-min Rain = 0
KMC1 082237Z 31010KT 04/03 A3025 RMK A01 T00380026  RH  092%=      5-min Rain = 0
KMC1 082238Z 31007KT 04/03 A3025 RMK A01 T00380026  RH  092%=      5-min Rain = 0
KMC1 082239Z 32007KT 04/03 A3025 RMK A01 T00380026  RH  092%=      5-min Rain = 0
KMC1 082240Z 32005KT 04/03 A3025 RMK A01 T00380027  RH  092%=      5-min Rain = 0
KMC1 082241Z 32005KT 04/03 A3025 RMK A01 T00380027  RH  092%=      5-min Rain = 0
KMC1 082242Z 32006KT 04/03 A3025 RMK A01 T00380027  RH  092%=      5-min Rain = 0
KMC1 082243Z 32006KT 04/03 A3025 RMK A01 T00380026  RH  092%=      5-min Rain = 0
KMC1 082244Z 32009KT 04/03 A3025 RMK A01 T00380026  RH  092%=      5-min Rain = 0
KMC1 082245Z 32009KT 04/03 A3025 RMK A01 T00380025  RH  091%=      5-min Rain = 0
KMC1 082246Z 31009KT 04/03 A3025 RMK A01 T00380025  RH  091%=      5-min Rain = 0
KMC1 082247Z 32005KT 04/03 A3025 RMK A01 T00380025  RH  091%=      5-min Rain = 0
KMC1 082248Z 32008KT 04/03 A3025 RMK A01 T00380025  RH  091%=      5-min Rain = 0
KMC1 082249Z 32008KT 04/03 A3025 RMK A01 T00380025  RH  091%=      5-min Rain = 0
KMC1 082250Z 33008G13KT 04/03 A3025 RMK A01 T00380025  RH  091%=      5-min Rain = 0
KMC1 082251Z 33008KT 04/03 A3025 RMK A01 T00380025  RH  091%=      5-min Rain = 0
KMC1 082252Z 34006KT 04/02 A3025 RMK A01 T00380024  RH  091%=      5-min Rain = 0
KMC1 082253Z 33008KT 04/03 A3025 RMK A01 T00380025  RH  091%=      5-min Rain = 0
KMC1 082254Z 31007KT 04/03 A3025 RMK A01 T00380025  RH  091%=      5-min Rain = 0
KMC1 082255Z 33008KT 04/03 A3025 RMK A01 T00380025  RH  091%=      5-min Rain = 0
KMC1 082256Z 33012KT 04/03 A3025 RMK A01 T00380025  RH  091%=      5-min Rain = 0
KMC1 082257Z 33010KT 04/02 A3025 RMK A01 T00380023  RH  090%=      5-min Rain = 0
KMC1 082258Z 32008KT 04/02 A3025 RMK A01 T00380023  RH  090%=      5-min Rain = 0
KMC1 082259Z 32010KT 04/02 A3025 RMK A01 T00380023  RH  090%=      5-min Rain = 0
KMC1 082300Z 32010KT 04/02 A3025 RMK A01 T00380023  RH  090%=      5-min Rain = 0
KMC1 082301Z 33012KT 04/02 A3025 RMK A01 T00370023  RH  090%=      5-min Rain = 0
KMC1 082302Z 32011KT 04/02 A3025 RMK A01 T00370023  RH  090%=      5-min Rain = 0
KMC1 082303Z 32011KT 04/02 A3025 RMK A01 T00370022  RH  090%=      5-min Rain = 0
KMC1 082304Z 32009KT 04/02 A3025 RMK A01 T00370023  RH  090%=      5-min Rain = 0
KMC1 082305Z 33009KT 04/02 A3025 RMK A01 T00370023  RH  090%=      5-min Rain = 0
KMC1 082306Z 32008KT 04/02 A3025 RMK A01 T00370024  RH  091%=      5-min Rain = 0
KMC1 082307Z 32009KT 04/02 A3025 RMK A01 T00370024  RH  091%=      5-min Rain = 0
KMC1 082308Z 32007KT 04/02 A3025 RMK A01 T00370024  RH  091%=      5-min Rain = 0
KMC1 082309Z 31010G15KT 04/02 A3025 RMK A01 T00370024  RH  091%=      5-min Rain = 0
KMC1 082310Z 31011KT 04/02 A3025 RMK A01 T00370023  RH  091%=      5-min Rain = 0
KMC1 082311Z 31007KT 04/02 A3025 RMK A01 T00370023  RH  091%=      5-min Rain = 0
KMC1 082312Z 31006KT 04/02 A3025 RMK A01 T00360024  RH  091%=      5-min Rain = 0
KMC1 082313Z 31008KT 04/02 A3025 RMK A01 T00360024  RH  092%=      5-min Rain = 0
KMC1 082314Z 32007KT 04/02 A3026 RMK A01 T00360024  RH  091%=      5-min Rain = 0
KMC1 082315Z 31007KT 04/02 A3026 RMK A01 T00360024  RH  091%=      5-min Rain = 0
KMC1 082316Z 32007KT 04/02 A3026 RMK A01 T00370023  RH  091%=      5-min Rain = 0
KMC1 082317Z 33007KT 04/02 A3026 RMK A01 T00360024  RH  091%=      5-min Rain = 0
KMC1 082318Z 31008KT 04/02 A3025 RMK A01 T00360023  RH  091%=      5-min Rain = 0
KMC1 082319Z 33007KT 04/02 A3025 RMK A01 T00360022  RH  091%=      5-min Rain = 0
KMC1 082320Z 34008KT 04/02 A3025 RMK A01 T00360022  RH  090%=      5-min Rain = 0
KMC1 082321Z 32007KT 04/02 A3025 RMK A01 T00360021  RH  090%=      5-min Rain = 0
KMC1 082322Z 33007KT 04/02 A3025 RMK A01 T00360021  RH  090%=      5-min Rain = 0
KMC1 082323Z 33008KT 04/02 A3025 RMK A01 T00360021  RH  090%=      5-min Rain = 0
KMC1 082324Z 33006KT 04/02 A3025 RMK A01 T00350020  RH  090%=      5-min Rain = 0
KMC1 082325Z 32007KT 04/02 A3025 RMK A01 T00360021  RH  090%=      5-min Rain = 0
KMC1 082326Z 33007KT 04/02 A3025 RMK A01 T00360021  RH  090%=      5-min Rain = 0
KMC1 082327Z 32006KT 04/02 A3025 RMK A01 T00350021  RH  090%=      5-min Rain = 0
KMC1 082328Z 32004KT 04/02 A3025 RMK A01 T00360021  RH  091%=      5-min Rain = 0
KMC1 082329Z 33006KT 04/02 A3025 RMK A01 T00360022  RH  091%=      5-min Rain = 0
KMC1 082330Z 33006KT 04/02 A3025 RMK A01 T00350022  RH  091%=      5-min Rain = 0
KMC1 082331Z 33005KT 04/02 A3025 RMK A01 T00350022  RH  091%=      5-min Rain = 0
KMC1 082332Z 33004KT 04/02 A3025 RMK A01 T00350022  RH  091%=      5-min Rain = 0
KMC1 082333Z 32004KT 04/02 A3025 RMK A01 T00350022  RH  091%=      5-min Rain = 0
KMC1 082334Z 33007KT 04/02 A3025 RMK A01 T00350023  RH  092%=      5-min Rain = 0
KMC1 082335Z 33007KT 04/02 A3026 RMK A01 T00350023  RH  091%=      5-min Rain = 0
KMC1 082336Z 33006KT 04/02 A3026 RMK A01 T00350022  RH  091%=      5-min Rain = 0
KMC1 082337Z 35006KT 04/02 A3026 RMK A01 T00350023  RH  092%=      5-min Rain = 0
KMC1 082338Z 33006KT 04/02 A3026 RMK A01 T00350023  RH  092%=      5-min Rain = 0
KMC1 082339Z 33006KT 04/02 A3026 RMK A01 T00350022  RH  091%=      5-min Rain = 0
KMC1 082340Z 32008KT 04/02 A3026 RMK A01 T00350023  RH  092%=      5-min Rain = 0
KMC1 082341Z 33007KT 04/02 A3026 RMK A01 T00350023  RH  092%=      5-min Rain = 0
KMC1 082342Z 33005KT 04/02 A3026 RMK A01 T00350023  RH  092%=      5-min Rain = 0
KMC1 082343Z 32006KT 04/02 A3026 RMK A01 T00350023  RH  092%=      5-min Rain = 0
KMC1 082344Z 31005KT 04/02 A3026 RMK A01 T00350023  RH  092%=      5-min Rain = 0
KMC1 082345Z 31005KT 04/02 A3026 RMK A01 T00350023  RH  092%=      5-min Rain = 0
KMC1 082346Z 31005KT 04/02 A3026 RMK A01 T00350023  RH  092%=      5-min Rain = 0
KMC1 082347Z 31004KT 04/02 A3026 RMK A01 T00350024  RH  092%=      5-min Rain = 0
KMC1 082348Z 32005KT 04/02 A3026 RMK A01 T00350024  RH  093%=      5-min Rain = 0
KMC1 082349Z 31005KT 04/02 A3026 RMK A01 T00350024  RH  093%=      5-min Rain = 0
KMC1 082350Z 31006KT 04/02 A3026 RMK A01 T00350024  RH  093%=      5-min Rain = 0
KMC1 082351Z 31005KT 04/02 A3026 RMK A01 T00350024  RH  092%=      5-min Rain = 0
KMC1 082352Z 33004KT 04/02 A3026 RMK A01 T00350024  RH  092%=      5-min Rain = 0
KMC1 082353Z 32005KT 04/02 A3026 RMK A01 T00350023  RH  092%=      5-min Rain = 0
KMC1 082354Z 32004KT 04/02 A3026 RMK A01 T00350024  RH  092%=      5-min Rain = 0
KMC1 082355Z 32004KT 04/02 A3026 RMK A01 T00350024  RH  092%=      5-min Rain = 0
KMC1 082356Z 32004KT 04/02 A3026 RMK A01 T00350024  RH  092%=      5-min Rain = 0
KMC1 082357Z 32003KT 04/02 A3026 RMK A01 T00350024  RH  092%=      5-min Rain = 0
KMC1 082358Z 30004KT 04/02 A3026 RMK A01 T00350024  RH  093%=      5-min Rain = 0
KMC1 082359Z 31005KT 04/02 A3027 RMK A01 T00350024  RH  093%=      5-min Rain = 0
KMC1 090000Z 32007KT 04/02 A3027 RMK A01 T00350024  RH  092%=      5-min Rain = 0
KMC1 090001Z 33007KT 04/02 A3027 RMK A01 T00350023  RH  092%=      5-min Rain = 0
KMC1 090002Z 32006KT 04/02 A3027 RMK A01 T00350023  RH  092%=      5-min Rain = 0
KMC1 090003Z 32006KT 04/02 A3027 RMK A01 T00350023  RH  092%=      5-min Rain = 0
KMC1 090004Z 32005KT 04/02 A3027 RMK A01 T00350023  RH  092%=      5-min Rain = 0
KMC1 090005Z 33005KT 04/02 A3027 RMK A01 T00350023  RH  092%=      5-min Rain = 0
KMC1 090006Z 32005KT 04/02 A3027 RMK A01 T00350023  RH  092%=      5-min Rain = 0
KMC1 090007Z 32007KT 04/02 A3027 RMK A01 T00350023  RH  092%=      5-min Rain = 0
KMC1 090008Z 31007KT 04/02 A3027 RMK A01 T00350022  RH  091%=      5-min Rain = 0
KMC1 090009Z 32007KT 04/02 A3027 RMK A01 T00350021  RH  091%=      5-min Rain = 0
KMC1 090010Z 32007KT 03/02 A3027 RMK A01 T00340021  RH  091%=      5-min Rain = 0
KMC1 090011Z 32006KT 04/02 A3027 RMK A01 T00350021  RH  091%=      5-min Rain = 0
KMC1 090012Z 32006KT 04/02 A3027 RMK A01 T00350021  RH  091%=      5-min Rain = 0
KMC1 090013Z 32008KT 04/02 A3027 RMK A01 T00350022  RH  091%=      5-min Rain = 0
KMC1 090014Z 31007KT 03/02 A3027 RMK A01 T00340021  RH  091%=      5-min Rain = 0
KMC1 090015Z 31006KT 03/02 A3027 RMK A01 T00340021  RH  091%=      5-min Rain = 0
KMC1 090016Z 31004KT 03/02 A3027 RMK A01 T00340021  RH  091%=      5-min Rain = 0
KMC1 090017Z 30004KT 03/02 A3027 RMK A01 T00340021  RH  091%=      5-min Rain = 0
KMC1 090018Z 30007KT 03/02 A3027 RMK A01 T00340022  RH  092%=      5-min Rain = 0
KMC1 090019Z 30005KT 03/02 A3027 RMK A01 T00340022  RH  092%=      5-min Rain = 0
KMC1 090020Z 30004KT 03/02 A3027 RMK A01 T00340021  RH  091%=      5-min Rain = 0
KMC1 090021Z 29005KT 03/02 A3027 RMK A01 T00340022  RH  092%=      5-min Rain = 0
KMC1 090022Z 30005KT 03/02 A3027 RMK A01 T00340022  RH  092%=      5-min Rain = 0
KMC1 090023Z 30006KT 04/02 A3027 RMK A01 T00350023  RH  092%=      5-min Rain = 0
KMC1 090024Z 30006KT 04/02 A3027 RMK A01 T00350023  RH  092%=      5-min Rain = 0
KMC1 090025Z 29006KT 03/02 A3027 RMK A01 T00340022  RH  092%=      5-min Rain = 0
KMC1 090026Z 29004KT 03/02 A3027 RMK A01 T00340022  RH  092%=      5-min Rain = 0
KMC1 090027Z 29007KT 04/02 A3027 RMK A01 T00350023  RH  092%=      5-min Rain = 0
KMC1 090028Z 30006KT 04/02 A3027 RMK A01 T00350023  RH  092%=      5-min Rain = 0
KMC1 090029Z 30007KT 03/02 A3027 RMK A01 T00340022  RH  092%=      5-min Rain = 0
KMC1 090030Z 31007KT 03/02 A3027 RMK A01 T00340022  RH  092%=      5-min Rain = 0
KMC1 090031Z 30005KT 03/02 A3027 RMK A01 T00340022  RH  092%=      5-min Rain = 0
KMC1 090032Z 31006KT 03/02 A3027 RMK A01 T00340022  RH  092%=      5-min Rain = 0
KMC1 090033Z 31007KT 03/02 A3027 RMK A01 T00340022  RH  092%=      5-min Rain = 0
KMC1 090034Z 30007KT 03/02 A3027 RMK A01 T00340021  RH  091%=      5-min Rain = 0
KMC1 090035Z 31006KT 03/02 A3027 RMK A01 T00340022  RH  092%=      5-min Rain = 0
KMC1 090036Z 32007KT 03/02 A3027 RMK A01 T00340022  RH  092%=      5-min Rain = 0
KMC1 090037Z 31006KT 03/02 A3027 RMK A01 T00340022  RH  091%=      5-min Rain = 0
KMC1 090038Z 31004KT 03/02 A3027 RMK A01 T00340022  RH  092%=      5-min Rain = 0
KMC1 090039Z 31005KT 03/02 A3028 RMK A01 T00340022  RH  092%=      5-min Rain = 0
KMC1 090040Z 32004KT 03/02 A3028 RMK A01 T00340022  RH  092%=      5-min Rain = 0
KMC1 090041Z 31004KT 03/02 A3028 RMK A01 T00340022  RH  092%=      5-min Rain = 0
KMC1 090042Z 29004KT 03/02 A3028 RMK A01 T00340022  RH  092%=      5-min Rain = 0
KMC1 090043Z 29005KT 03/02 A3028 RMK A01 T00340023  RH  093%=      5-min Rain = 0
KMC1 090044Z 31007KT 03/02 A3028 RMK A01 T00340023  RH  092%=      5-min Rain = 0
KMC1 090045Z 31009KT 03/02 A3028 RMK A01 T00340022  RH  092%=      5-min Rain = 0
KMC1 090046Z 30009KT 03/02 A3028 RMK A01 T00340022  RH  092%=      5-min Rain = 0
KMC1 090047Z 30007KT 03/02 A3028 RMK A01 T00340021  RH  091%=      5-min Rain = 0
KMC1 090048Z 30007KT 03/02 A3028 RMK A01 T00340021  RH  091%=      5-min Rain = 0
KMC1 090049Z 30006KT 03/02 A3028 RMK A01 T00340021  RH  091%=      5-min Rain = 0
KMC1 090050Z 30007KT 03/02 A3028 RMK A01 T00340021  RH  091%=      5-min Rain = 0
KMC1 090051Z 30009KT 03/02 A3028 RMK A01 T00340021  RH  091%=      5-min Rain = 0
KMC1 090052Z 30006KT 03/02 A3028 RMK A01 T00340021  RH  091%=      5-min Rain = 0
KMC1 090053Z 30005KT 03/02 A3028 RMK A01 T00340021  RH  091%=      5-min Rain = 0
KMC1 090054Z 30005KT 03/02 A3028 RMK A01 T00340022  RH  092%=      5-min Rain = 0
KMC1 090055Z 30005KT 03/02 A3028 RMK A01 T00340022  RH  092%=      5-min Rain = 0
KMC1 090056Z 29005KT 03/02 A3028 RMK A01 T00340022  RH  092%=      5-min Rain = 0
KMC1 090057Z 30006KT 03/02 A3028 RMK A01 T00340022  RH  092%=      5-min Rain = 0
KMC1 090058Z 31008KT 03/02 A3028 RMK A01 T00340022  RH  092%=      5-min Rain = 0
KMC1 090059Z 31006KT 03/02 A3028 RMK A01 T00340021  RH  091%=      5-min Rain = 0
KMC1 090100Z 32008KT 03/02 A3028 RMK A01 T00340021  RH  091%=      5-min Rain = 0
KMC1 090101Z 31006KT 03/02 A3028 RMK A01 T00340020  RH  091%=      5-min Rain = 0
KMC1 090102Z 31006KT 03/02 A3028 RMK A01 T00340020  RH  091%=      5-min Rain = 0
KMC1 090103Z 31005KT 03/02 A3028 RMK A01 T00340020  RH  091%=      5-min Rain = 0
KMC1 090104Z 32005KT 03/02 A3028 RMK A01 T00340021  RH  091%=      5-min Rain = 0
KMC1 090105Z 32006KT 03/02 A3028 RMK A01 T00340021  RH  091%=      5-min Rain = 0
KMC1 090106Z 32006KT 03/02 A3028 RMK A01 T00340021  RH  091%=      5-min Rain = 0
KMC1 090107Z 32007KT 03/02 A3028 RMK A01 T00340020  RH  091%=      5-min Rain = 0
KMC1 090108Z 31007KT 03/02 A3028 RMK A01 T00340020  RH  091%=      5-min Rain = 0
KMC1 090109Z 32005KT 03/02 A3028 RMK A01 T00340020  RH  091%=      5-min Rain = 0
KMC1 090110Z 32006KT 03/02 A3028 RMK A01 T00340020  RH  091%=      5-min Rain = 0
KMC1 090111Z 32005KT 03/02 A3028 RMK A01 T00340020  RH  091%=      5-min Rain = 0
KMC1 090112Z 33006KT 03/02 A3028 RMK A01 T00330020  RH  091%=      5-min Rain = 0
KMC1 090113Z 34006KT 03/02 A3028 RMK A01 T00340021  RH  091%=      5-min Rain = 0
KMC1 090114Z 33006KT 03/02 A3028 RMK A01 T00340020  RH  091%=      5-min Rain = 0
KMC1 090115Z 32004KT 03/02 A3028 RMK A01 T00340021  RH  091%=      5-min Rain = 0
KMC1 090116Z 32005KT 03/02 A3028 RMK A01 T00340021  RH  091%=      5-min Rain = 0
KMC1 090117Z 33004KT 03/02 A3028 RMK A01 T00340021  RH  091%=      5-min Rain = 0
KMC1 090118Z 34005KT 03/02 A3028 RMK A01 T00330021  RH  091%=      5-min Rain = 0
KMC1 090119Z 34006KT 03/02 A3028 RMK A01 T00330020  RH  091%=      5-min Rain = 0
KMC1 090120Z 33005KT 03/02 A3028 RMK A01 T00340020  RH  091%=      5-min Rain = 0
KMC1 090121Z 33006KT 03/02 A3028 RMK A01 T00340021  RH  091%=      5-min Rain = 0
KMC1 090122Z 34006KT 03/02 A3028 RMK A01 T00340020  RH  091%=      5-min Rain = 0
KMC1 090123Z 33006KT 03/02 A3028 RMK A01 T00340020  RH  091%=      5-min Rain = 0
KMC1 090124Z 33005KT 03/02 A3028 RMK A01 T00340020  RH  091%=      5-min Rain = 0
KMC1 090125Z 32004KT 03/02 A3028 RMK A01 T00340021  RH  091%=      5-min Rain = 0
KMC1 090126Z 32005KT 03/02 A3028 RMK A01 T00340021  RH  092%=      5-min Rain = 0
KMC1 090127Z 32005KT 03/02 A3028 RMK A01 T00340021  RH  091%=      5-min Rain = 0
KMC1 090128Z 32005KT 03/02 A3028 RMK A01 T00340021  RH  091%=      5-min Rain = 0
KMC1 090129Z 31004KT 03/02 A3028 RMK A01 T00340021  RH  091%=      5-min Rain = 0
KMC1 090130Z 33004KT 03/02 A3028 RMK A01 T00340021  RH  092%=      5-min Rain = 0
KMC1 090131Z 31003KT 03/02 A3028 RMK A01 T00340022  RH  092%=      5-min Rain = 0
KMC1 090132Z 32004KT 03/02 A3029 RMK A01 T00340022  RH  092%=      5-min Rain = 0
KMC1 090133Z 32006KT 03/02 A3029 RMK A01 T00340022  RH  092%=      5-min Rain = 0
KMC1 090134Z 31005KT 03/02 A3029 RMK A01 T00340021  RH  092%=      5-min Rain = 0
KMC1 090135Z 31005KT 03/02 A3029 RMK A01 T00340022  RH  092%=      5-min Rain = 0
KMC1 090136Z 31004KT 03/02 A3029 RMK A01 T00340022  RH  092%=      5-min Rain = 0
KMC1 090137Z 32003KT 03/02 A3029 RMK A01 T00330022  RH  092%=      5-min Rain = 0
KMC1 090138Z 30005KT 03/02 A3029 RMK A01 T00330022  RH  092%=      5-min Rain = 0
KMC1 090139Z 31005KT 03/02 A3029 RMK A01 T00340022  RH  092%=      5-min Rain = 0
KMC1 090140Z 30004KT 03/02 A3029 RMK A01 T00340022  RH  092%=      5-min Rain = 0
KMC1 090141Z 31004KT 03/02 A3029 RMK A01 T00340022  RH  092%=      5-min Rain = 0
KMC1 090142Z 31005KT 03/02 A3029 RMK A01 T00340022  RH  092%=      5-min Rain = 0
KMC1 090143Z 31005KT 03/02 A3029 RMK A01 T00340022  RH  092%=      5-min Rain = 0
KMC1 090144Z 31004KT 03/02 A3029 RMK A01 T00340022  RH  092%=      5-min Rain = 0
KMC1 090145Z 30004KT 03/02 A3029 RMK A01 T00340022  RH  092%=      5-min Rain = 0
KMC1 090146Z 31005KT 03/02 A3029 RMK A01 T00340021  RH  092%=      5-min Rain = 0
KMC1 090147Z 31007KT 03/02 A3029 RMK A01 T00340021  RH  092%=      5-min Rain = 0
KMC1 090148Z 32007KT 03/02 A3029 RMK A01 T00340021  RH  091%=      5-min Rain = 0
KMC1 090149Z 32006KT 03/02 A3029 RMK A01 T00330020  RH  091%=      5-min Rain = 0
KMC1 090150Z 31004KT 03/02 A3029 RMK A01 T00330020  RH  091%=      5-min Rain = 0
KMC1 090151Z 32006KT 03/02 A3029 RMK A01 T00330020  RH  091%=      5-min Rain = 0
KMC1 090152Z 32007KT 03/02 A3029 RMK A01 T00330020  RH  091%=      5-min Rain = 0
KMC1 090153Z 32008KT 03/02 A3029 RMK A01 T00330019  RH  090%=      5-min Rain = 0
KMC1 090154Z 32005KT 03/02 A3029 RMK A01 T00330018  RH  090%=      5-min Rain = 0
KMC1 090155Z 31007KT 03/02 A3029 RMK A01 T00330019  RH  090%=      5-min Rain = 0
KMC1 090156Z 32009KT 03/02 A3029 RMK A01 T00330019  RH  090%=      5-min Rain = 0
KMC1 090157Z 31007KT 03/02 A3029 RMK A01 T00330018  RH  090%=      5-min Rain = 0
KMC1 090158Z 31007KT 03/02 A3029 RMK A01 T00330018  RH  090%=      5-min Rain = 0
KMC1 090159Z 31006KT 03/02 A3029 RMK A01 T00330018  RH  090%=      5-min Rain = 0
KMC1 090200Z 31006KT 03/02 A3029 RMK A01 T00330019  RH  090%=      5-min Rain = 0
KMC1 090201Z 33008KT 03/02 A3029 RMK A01 T00330019  RH  090%=      5-min Rain = 0
KMC1 090202Z 32007KT 03/02 A3029 RMK A01 T00330019  RH  090%=      5-min Rain = 0
KMC1 090203Z 32007KT 03/02 A3029 RMK A01 T00330019  RH  090%=      5-min Rain = 0
KMC1 090204Z 32006KT 03/02 A3029 RMK A01 T00330018  RH  090%=      5-min Rain = 0
KMC1 090205Z 33007KT 03/02 A3029 RMK A01 T00330019  RH  090%=      5-min Rain = 0
KMC1 090206Z 32006KT 03/02 A3029 RMK A01 T00330019  RH  090%=      5-min Rain = 0
KMC1 090207Z 32006KT 03/02 A3029 RMK A01 T00330019  RH  091%=      5-min Rain = 0
KMC1 090208Z 32007KT 03/02 A3029 RMK A01 T00330019  RH  091%=      5-min Rain = 0
KMC1 090209Z 33008KT 03/02 A3029 RMK A01 T00330018  RH  090%=      5-min Rain = 0
KMC1 090210Z 32005KT 03/02 A3029 RMK A01 T00330018  RH  090%=      5-min Rain = 0
KMC1 090211Z 32006KT 03/02 A3028 RMK A01 T00330018  RH  090%=      5-min Rain = 0
KMC1 090212Z 33005KT 03/02 A3028 RMK A01 T00330018  RH  090%=      5-min Rain = 0
KMC1 090213Z 33004KT 03/02 A3028 RMK A01 T00330018  RH  090%=      5-min Rain = 0
KMC1 090214Z 33004KT 03/02 A3028 RMK A01 T00330019  RH  091%=      5-min Rain = 0
KMC1 090215Z 32007KT 03/02 A3028 RMK A01 T00330019  RH  091%=      5-min Rain = 0
KMC1 090216Z 31005KT 03/02 A3028 RMK A01 T00320018  RH  091%=      5-min Rain = 0
KMC1 090217Z 32004KT 03/02 A3028 RMK A01 T00320018  RH  091%=      5-min Rain = 0
KMC1 090218Z 31005KT 03/02 A3028 RMK A01 T00320018  RH  091%=      5-min Rain = 0
KMC1 090219Z 30005KT 03/02 A3028 RMK A01 T00320019  RH  091%=      5-min Rain = 0
KMC1 090220Z 30004KT 03/02 A3029 RMK A01 T00320018  RH  091%=      5-min Rain = 0
KMC1 090221Z 29004KT 03/02 A3029 RMK A01 T00320019  RH  091%=      5-min Rain = 0
KMC1 090222Z 30007KT 03/02 A3029 RMK A01 T00320019  RH  091%=      5-min Rain = 0
KMC1 090223Z 29008KT 03/02 A3029 RMK A01 T00320019  RH  091%=      5-min Rain = 0
KMC1 090224Z 29007KT 03/02 A3029 RMK A01 T00320018  RH  090%=      5-min Rain = 0
KMC1 090225Z 28004KT 03/02 A3029 RMK A01 T00320018  RH  090%=      5-min Rain = 0
KMC1 090226Z 26006KT 03/02 A3029 RMK A01 T00320019  RH  091%=      5-min Rain = 0
KMC1 090227Z 26004KT 03/02 A303 RMK A01 T00320019  RH  091%=      5-min Rain = 0
KMC1 090228Z 27005KT 03/02 A303 RMK A01 T00320019  RH  091%=      5-min Rain = 0
KMC1 090229Z 27004KT 03/02 A303 RMK A01 T00320019  RH  091%=      5-min Rain = 0
KMC1 090230Z 28005KT 03/02 A303 RMK A01 T00320019  RH  091%=      5-min Rain = 0
KMC1 090231Z 30006KT 03/02 A303 RMK A01 T00320019  RH  091%=      5-min Rain = 0
KMC1 090232Z 30004KT 03/02 A3029 RMK A01 T00320019  RH  091%=      5-min Rain = 0
KMC1 090233Z 30006KT 03/02 A3029 RMK A01 T00320019  RH  091%=      5-min Rain = 0
KMC1 090234Z 31005KT 03/02 A3029 RMK A01 T00320019  RH  091%=      5-min Rain = 0
KMC1 090235Z 32004KT 03/02 A3029 RMK A01 T00320019  RH  091%=      5-min Rain = 0
KMC1 090236Z 31005KT 03/02 A3029 RMK A01 T00320019  RH  092%=      5-min Rain = 0
KMC1 090237Z 32006KT 03/02 A3029 RMK A01 T00320019  RH  092%=      5-min Rain = 0
KMC1 090238Z 31007KT 03/02 A3029 RMK A01 T00310019  RH  091%=      5-min Rain = 0
KMC1 090239Z 31007KT 03/02 A3029 RMK A01 T00310018  RH  091%=      5-min Rain = 0
KMC1 090240Z 32007KT 03/02 A3029 RMK A01 T00310018  RH  091%=      5-min Rain = 0
KMC1 090241Z 31004KT 03/02 A3029 RMK A01 T00310018  RH  091%=      5-min Rain = 0
KMC1 090242Z 31005KT 03/02 A3029 RMK A01 T00300018  RH  091%=      5-min Rain = 0
KMC1 090243Z 32007KT 03/02 A3029 RMK A01 T00300018  RH  092%=      5-min Rain = 0
KMC1 090244Z 31006KT 03/02 A3029 RMK A01 T00300018  RH  092%=      5-min Rain = 0
KMC1 090245Z 32004KT 03/02 A3029 RMK A01 T00300017  RH  092%=      5-min Rain = 0
KMC1 090246Z 32005KT 03/02 A303 RMK A01 T00300017  RH  092%=      5-min Rain = 0
KMC1 090247Z 31005KT 03/02 A303 RMK A01 T00290017  RH  092%=      5-min Rain = 0
KMC1 090248Z 31005KT 03/02 A303 RMK A01 T00290018  RH  092%=      5-min Rain = 0
KMC1 090249Z 32005KT 03/02 A303 RMK A01 T00290018  RH  092%=      5-min Rain = 0
KMC1 090250Z 32005KT 03/02 A303 RMK A01 T00290018  RH  092%=      5-min Rain = 0
KMC1 090251Z 33005KT 03/02 A303 RMK A01 T00290018  RH  093%=      5-min Rain = 0
KMC1 090252Z 33005KT 03/02 A303 RMK A01 T00290018  RH  093%=      5-min Rain = 0
KMC1 090253Z 33006KT 03/02 A303 RMK A01 T00290018  RH  093%=      5-min Rain = 0
KMC1 090254Z 33006KT 03/02 A303 RMK A01 T00290018  RH  093%=      5-min Rain = 0
KMC1 090255Z 33005KT 03/02 A303 RMK A01 T00290018  RH  093%=      5-min Rain = 0
KMC1 090256Z 33003KT 03/02 A303 RMK A01 T00290018  RH  093%=      5-min Rain = 0
KMC1 090257Z 33005KT 03/02 A303 RMK A01 T00280017  RH  093%=      5-min Rain = 0
KMC1 090258Z 33004KT 03/02 A303 RMK A01 T00280017  RH  093%=      5-min Rain = 0
KMC1 090259Z 33004KT 03/02 A303 RMK A01 T00270016  RH  093%=      5-min Rain = 0
KMC1 090300Z 33005KT 03/02 A303 RMK A01 T00270016  RH  093%=      5-min Rain = 0
KMC1 090301Z 33004KT 03/02 A303 RMK A01 T00260016  RH  093%=      5-min Rain = 0
KMC1 090302Z 33005KT 03/02 A303 RMK A01 T00260017  RH  093%=      5-min Rain = 0
KMC1 090303Z 33005KT 03/02 A303 RMK A01 T00260017  RH  093%=      5-min Rain = 0
KMC1 090304Z 33004KT 03/02 A303 RMK A01 T00260016  RH  093%=      5-min Rain = 0
KMC1 090305Z 33004KT 03/02 A303 RMK A01 T00250016  RH  094%=      5-min Rain = 0
KMC1 090306Z 32003KT 03/02 A303 RMK A01 T00250016  RH  094%=      5-min Rain = 0
KMC1 090307Z 33005KT 03/02 A303 RMK A01 T00250016  RH  094%=      5-min Rain = 0
KMC1 090308Z 33004KT 03/02 A303 RMK A01 T00250016  RH  094%=      5-min Rain = 0
KMC1 090309Z 33004KT 03/02 A303 RMK A01 T00250016  RH  094%=      5-min Rain = 0
KMC1 090310Z 33004KT 03/02 A303 RMK A01 T00250017  RH  094%=      5-min Rain = 0
KMC1 090311Z 33003KT 03/02 A303 RMK A01 T00250017  RH  094%=      5-min Rain = 0
KMC1 090312Z 32004KT 03/02 A303 RMK A01 T00250017  RH  095%=      5-min Rain = 0
KMC1 090313Z 33003KT 03/02 A3031 RMK A01 T00250017  RH  095%=      5-min Rain = 0
KMC1 090314Z 32003KT 03/02 A3031 RMK A01 T00250018  RH  095%=      5-min Rain = 0
KMC1 090315Z 32003KT 03/02 A3031 RMK A01 T00250018  RH  095%=      5-min Rain = 0
KMC1 090316Z 32004KT 03/02 A3031 RMK A01 T00260018  RH  095%=      5-min Rain = 0
KMC1 090317Z 32004KT 03/02 A3031 RMK A01 T00260018  RH  095%=      5-min Rain = 0
KMC1 090318Z 33005KT 03/02 A3031 RMK A01 T00260018  RH  094%=      5-min Rain = 0
KMC1 090319Z 32004KT 03/02 A3031 RMK A01 T00260018  RH  094%=      5-min Rain = 0
KMC1 090320Z 33005KT 03/02 A3031 RMK A01 T00260018  RH  094%=      5-min Rain = 0
KMC1 090321Z 32004KT 03/02 A3031 RMK A01 T00270018  RH  094%=      5-min Rain = 0
KMC1 090322Z 31004KT 03/02 A3031 RMK A01 T00270018  RH  094%=      5-min Rain = 0
KMC1 090323Z 32005KT 03/02 A3031 RMK A01 T00270018  RH  094%=      5-min Rain = 0
KMC1 090324Z 31003KT 03/02 A3031 RMK A01 T00270018  RH  094%=      5-min Rain = 0
KMC1 090325Z 31004KT 03/02 A3031 RMK A01 T00270018  RH  094%=      5-min Rain = 0
KMC1 090326Z 31005KT 03/02 A3031 RMK A01 T00270018  RH  094%=      5-min Rain = 0
KMC1 090327Z 32005KT 03/02 A3031 RMK A01 T00270018  RH  094%=      5-min Rain = 0
KMC1 090328Z 31005KT 03/02 A3031 RMK A01 T00270018  RH  094%=      5-min Rain = 0
KMC1 090329Z 33006KT 03/02 A3031 RMK A01 T00270018  RH  094%=      5-min Rain = 0
KMC1 090330Z 33006KT 03/02 A3031 RMK A01 T00270018  RH  094%=      5-min Rain = 0
KMC1 090331Z 32006KT 03/02 A3031 RMK A01 T00270018  RH  093%=      5-min Rain = 0
KMC1 090332Z 31005KT 03/02 A3031 RMK A01 T00270017  RH  093%=      5-min Rain = 0
KMC1 090333Z 32006KT 03/02 A3031 RMK A01 T00270017  RH  093%=      5-min Rain = 0
KMC1 090334Z 32006KT 03/02 A3031 RMK A01 T00280018  RH  093%=      5-min Rain = 0
KMC1 090335Z 32004KT 03/02 A3031 RMK A01 T00280018  RH  093%=      5-min Rain = 0
KMC1 090336Z 32004KT 03/02 A3031 RMK A01 T00280018  RH  093%=      5-min Rain = 0
KMC1 090337Z 32005KT 03/02 A3031 RMK A01 T00280018  RH  093%=      5-min Rain = 0
KMC1 090338Z 31007KT 03/02 A3031 RMK A01 T00280018  RH  093%=      5-min Rain = 0
KMC1 090339Z 32007KT 03/02 A3031 RMK A01 T00280017  RH  093%=      5-min Rain = 0
KMC1 090340Z 33009KT 03/02 A3031 RMK A01 T00280017  RH  092%=      5-min Rain = 0
KMC1 090341Z 34007KT 03/02 A3031 RMK A01 T00280015  RH  092%=      5-min Rain = 0
KMC1 090342Z 33008KT 03/02 A3031 RMK A01 T00280015  RH  091%=      5-min Rain = 0
KMC1 090343Z 33006KT 03/02 A3031 RMK A01 T00280015  RH  091%=      5-min Rain = 0
KMC1 090344Z 33008KT 03/02 A3031 RMK A01 T00280015  RH  091%=      5-min Rain = 0
KMC1 090345Z 33010KT 03/02 A3031 RMK A01 T00290015  RH  091%=      5-min Rain = 0
KMC1 090346Z 33009KT 03/01 A3031 RMK A01 T00290014  RH  090%=      5-min Rain = 0
KMC1 090347Z 32010KT 03/01 A3031 RMK A01 T00290014  RH  090%=      5-min Rain = 0
KMC1 090348Z 33009KT 03/01 A3031 RMK A01 T00290013  RH  090%=      5-min Rain = 0
KMC1 090349Z 33008KT 03/01 A3031 RMK A01 T00290013  RH  090%=      5-min Rain = 0
KMC1 090350Z 33008KT 03/01 A3031 RMK A01 T00290014  RH  090%=      5-min Rain = 0
KMC1 090351Z 32007KT 03/01 A3031 RMK A01 T00290014  RH  090%=      5-min Rain = 0
KMC1 090352Z 32006KT 03/02 A3031 RMK A01 T00290015  RH  090%=      5-min Rain = 0
KMC1 090353Z 33009KT 03/02 A3031 RMK A01 T00290015  RH  091%=      5-min Rain = 0
KMC1 090354Z 33008KT 03/02 A3031 RMK A01 T00290015  RH  090%=      5-min Rain = 0
KMC1 090355Z 32007KT 03/01 A3031 RMK A01 T00290014  RH  090%=      5-min Rain = 0
KMC1 090356Z 32007KT 03/01 A3031 RMK A01 T00290014  RH  090%=      5-min Rain = 0
KMC1 090357Z 33009KT 03/02 A3031 RMK A01 T00290015  RH  090%=      5-min Rain = 0
KMC1 090358Z 33008KT 03/02 A3031 RMK A01 T00290015  RH  090%=      5-min Rain = 0
KMC1 090359Z 34010KT 03/02 A3031 RMK A01 T00290015  RH  090%=      5-min Rain = 0
KMC1 090400Z 33009KT 03/01 A3031 RMK A01 T00290014  RH  090%=      5-min Rain = 0
KMC1 090401Z 32009KT 03/01 A3031 RMK A01 T00280013  RH  090%=      5-min Rain = 0
KMC1 090402Z 32010KT 03/01 A3031 RMK A01 T00290013  RH  090%=      5-min Rain = 0
KMC1 090403Z 33009KT 03/01 A3031 RMK A01 T00290014  RH  090%=      5-min Rain = 0
KMC1 090404Z 33008KT 03/01 A3031 RMK A01 T00280013  RH  090%=      5-min Rain = 0
KMC1 090405Z 32012KT 03/01 A3031 RMK A01 T00290013  RH  089%=      5-min Rain = 0
KMC1 090406Z 32010KT 03/01 A3031 RMK A01 T00280011  RH  088%=      5-min Rain = 0
KMC1 090407Z 31011KT 03/01 A3031 RMK A01 T00280011  RH  088%=      5-min Rain = 0
KMC1 090408Z 32008KT 03/01 A3031 RMK A01 T00280011  RH  088%=      5-min Rain = 0
KMC1 090409Z 32011KT 03/01 A3031 RMK A01 T00280011  RH  088%=      5-min Rain = 0
KMC1 090410Z 33007G12KT 03/01 A3031 RMK A01 T00280010  RH  088%=      5-min Rain = 0
KMC1 090411Z 34011KT 03/01 A3031 RMK A01 T00280010  RH  088%=      5-min Rain = 0
KMC1 090412Z 33008KT 03/01 A3031 RMK A01 T00280010  RH  088%=      5-min Rain = 0
KMC1 090413Z 34007G14KT 03/01 A3031 RMK A01 T00280010  RH  088%=      5-min Rain = 0
KMC1 090414Z 34009KT 03/01 A3031 RMK A01 T00280010  RH  088%=      5-min Rain = 0
KMC1 090415Z 33006KT 03/01 A3031 RMK A01 T00280009  RH  088%=      5-min Rain = 0
KMC1 090416Z 33007KT 03/01 A3031 RMK A01 T00280010  RH  088%=      5-min Rain = 0
KMC1 090417Z 34008KT 03/01 A3031 RMK A01 T00280010  RH  088%=      5-min Rain = 0
KMC1 090418Z 32010KT 03/01 A3031 RMK A01 T00270010  RH  088%=      5-min Rain = 0
KMC1 090419Z 33007KT 03/01 A3031 RMK A01 T00280010  RH  088%=      5-min Rain = 0
KMC1 090420Z 33008KT 03/01 A3031 RMK A01 T00280010  RH  088%=      5-min Rain = 0
KMC1 090421Z 34007KT 03/01 A3031 RMK A01 T00270009  RH  088%=      5-min Rain = 0
KMC1 090422Z 34006KT 03/01 A3031 RMK A01 T00280010  RH  088%=      5-min Rain = 0
KMC1 090423Z 34006KT 03/01 A3031 RMK A01 T00280010  RH  088%=      5-min Rain = 0
KMC1 090424Z 33005KT 03/01 A3031 RMK A01 T00270011  RH  089%=      5-min Rain = 0
KMC1 090425Z 33005KT 03/01 A3031 RMK A01 T00270011  RH  089%=      5-min Rain = 0
KMC1 090426Z 33005KT 03/01 A3031 RMK A01 T00270011  RH  089%=      5-min Rain = 0
KMC1 090427Z 32005KT 03/01 A3031 RMK A01 T00270011  RH  089%=      5-min Rain = 0
KMC1 090428Z 33007KT 03/01 A3031 RMK A01 T00270011  RH  089%=      5-min Rain = 0
KMC1 090429Z 33006KT 03/01 A3031 RMK A01 T00270011  RH  089%=      5-min Rain = 0
KMC1 090430Z 32008KT 03/01 A3031 RMK A01 T00270011  RH  089%=      5-min Rain = 0
KMC1 090431Z 33009KT 03/01 A3031 RMK A01 T00270011  RH  089%=      5-min Rain = 0
KMC1 090432Z 33007KT 03/01 A3031 RMK A01 T00260010  RH  089%=      5-min Rain = 0
KMC1 090433Z 32008KT 03/01 A3032 RMK A01 T00260010  RH  089%=      5-min Rain = 0
KMC1 090434Z 32008KT 03/01 A3032 RMK A01 T00260010  RH  089%=      5-min Rain = 0
KMC1 090435Z 33009KT 03/01 A3032 RMK A01 T00260010  RH  089%=      5-min Rain = 0
KMC1 090436Z 33009KT 03/01 A3032 RMK A01 T00260010  RH  089%=      5-min Rain = 0
KMC1 090437Z 33008KT 03/01 A3032 RMK A01 T00260009  RH  088%=      5-min Rain = 0
KMC1 090438Z 32008KT 03/01 A3032 RMK A01 T00260009  RH  089%=      5-min Rain = 0
KMC1 090439Z 33008KT 03/01 A3032 RMK A01 T00260010  RH  089%=      5-min Rain = 0
KMC1 090440Z 33008KT 03/01 A3032 RMK A01 T00260010  RH  089%=      5-min Rain = 0
KMC1 090441Z 32009KT 03/01 A3032 RMK A01 T00260009  RH  089%=      5-min Rain = 0
KMC1 090442Z 31008KT 03/01 A3032 RMK A01 T00260009  RH  088%=      5-min Rain = 0
KMC1 090443Z 32006KT 03/01 A3032 RMK A01 T00260010  RH  089%=      5-min Rain = 0
KMC1 090444Z 31008KT 03/01 A3032 RMK A01 T00260010  RH  089%=      5-min Rain = 0
KMC1 090445Z 32007KT 03/01 A3032 RMK A01 T00260010  RH  089%=      5-min Rain = 0
KMC1 090446Z 33007KT 03/01 A3032 RMK A01 T00260009  RH  089%=      5-min Rain = 0
KMC1 090447Z 32008KT 03/01 A3032 RMK A01 T00260009  RH  089%=      5-min Rain = 0
KMC1 090448Z 33008KT 03/01 A3032 RMK A01 T00260009  RH  089%=      5-min Rain = 0
KMC1 090449Z 33008G14KT 03/01 A3032 RMK A01 T00260009  RH  088%=      5-min Rain = 0
KMC1 090450Z 34008KT 03/01 A3032 RMK A01 T00260009  RH  088%=      5-min Rain = 0
KMC1 090451Z 32007KT 03/01 A3032 RMK A01 T00260009  RH  089%=      5-min Rain = 0
KMC1 090452Z 33006KT 03/01 A3032 RMK A01 T00260009  RH  089%=      5-min Rain = 0
KMC1 090453Z 31007KT 03/01 A3032 RMK A01 T00260010  RH  089%=      5-min Rain = 0
KMC1 090454Z 31006KT 03/01 A3032 RMK A01 T00260010  RH  089%=      5-min Rain = 0
KMC1 090455Z 33006KT 03/01 A3032 RMK A01 T00260010  RH  089%=      5-min Rain = 0
KMC1 090456Z 32006KT 03/01 A3032 RMK A01 T00260010  RH  089%=      5-min Rain = 0
KMC1 090457Z 32008KT 03/01 A3032 RMK A01 T00260010  RH  089%=      5-min Rain = 0
KMC1 090458Z 32006G11KT 03/01 A3032 RMK A01 T00260009  RH  089%=      5-min Rain = 0
KMC1 090459Z 31007KT 03/01 A3032 RMK A01 T00260009  RH  089%=      5-min Rain = 0
KMC1 090500Z 33007G13KT 03/01 A3032 RMK A01 T00260009  RH  089%=      5-min Rain = 0
KMC1 090501Z 31008KT 03/01 A3031 RMK A01 T00260010  RH  089%=      5-min Rain = 0
KMC1 090502Z 31007KT 03/01 A3031 RMK A01 T00260010  RH  089%=      5-min Rain = 0
KMC1 090503Z 34007KT 03/01 A3031 RMK A01 T00260010  RH  089%=      5-min Rain = 0
KMC1 090504Z 33005KT 03/01 A3031 RMK A01 T00260009  RH  089%=      5-min Rain = 0
KMC1 090505Z 32007KT 03/01 A3032 RMK A01 T00260010  RH  089%=      5-min Rain = 0
KMC1 090506Z 33008KT 03/01 A3032 RMK A01 T00260010  RH  089%=      5-min Rain = 0
KMC1 090507Z 33010KT 03/01 A3032 RMK A01 T00260010  RH  089%=      5-min Rain = 0
KMC1 090508Z 33007KT 03/01 A3032 RMK A01 T00260010  RH  089%=      5-min Rain = 0
KMC1 090509Z 32008KT 03/01 A3032 RMK A01 T00260010  RH  089%=      5-min Rain = 0
KMC1 090510Z 31007KT 03/01 A3032 RMK A01 T00260009  RH  089%=      5-min Rain = 0
KMC1 090511Z 31008G13KT 03/01 A3032 RMK A01 T00260009  RH  088%=      5-min Rain = 0
KMC1 090512Z 32009KT 03/01 A3032 RMK A01 T00260008  RH  088%=      5-min Rain = 0
KMC1 090513Z 32008KT 03/01 A3032 RMK A01 T00260008  RH  088%=      5-min Rain = 0
KMC1 090514Z 33006KT 03/01 A3032 RMK A01 T00260008  RH  088%=      5-min Rain = 0
KMC1 090515Z 32005KT 03/01 A3032 RMK A01 T00260008  RH  088%=      5-min Rain = 0
KMC1 090516Z 31004KT 03/01 A3032 RMK A01 T00260009  RH  089%=      5-min Rain = 0
KMC1 090517Z 33004KT 03/01 A3032 RMK A01 T00260009  RH  089%=      5-min Rain = 0
KMC1 090518Z 33004KT 03/01 A3032 RMK A01 T00260010  RH  089%=      5-min Rain = 0
KMC1 090519Z 33005KT 03/01 A3032 RMK A01 T00260010  RH  089%=      5-min Rain = 0
KMC1 090520Z 34004KT 03/01 A3032 RMK A01 T00260010  RH  089%=      5-min Rain = 0
KMC1 090521Z 32006KT 03/01 A3033 RMK A01 T00260010  RH  090%=      5-min Rain = 0
KMC1 090522Z 34008KT 03/01 A3033 RMK A01 T00260010  RH  089%=      5-min Rain = 0
KMC1 090523Z 33004KT 03/01 A3033 RMK A01 T00260010  RH  089%=      5-min Rain = 0
KMC1 090524Z 31004KT 03/01 A3033 RMK A01 T00260011  RH  090%=      5-min Rain = 0
KMC1 090525Z 33005KT 03/01 A3033 RMK A01 T00260011  RH  090%=      5-min Rain = 0
KMC1 090526Z 32005KT 03/01 A3033 RMK A01 T00260011  RH  090%=      5-min Rain = 0
KMC1 090527Z 33005KT 03/01 A3033 RMK A01 T00260011  RH  090%=      5-min Rain = 0
KMC1 090528Z 32008KT 03/01 A3032 RMK A01 T00260011  RH  090%=      5-min Rain = 0
KMC1 090529Z 33006KT 03/01 A3033 RMK A01 T00260010  RH  089%=      5-min Rain = 0
KMC1 090530Z 33006KT 03/01 A3033 RMK A01 T00260010  RH  089%=      5-min Rain = 0
KMC1 090531Z 33006KT 03/01 A3033 RMK A01 T00260010  RH  089%=      5-min Rain = 0
KMC1 090532Z 32006KT 03/01 A3033 RMK A01 T00260010  RH  089%=      5-min Rain = 0
KMC1 090533Z 31005KT 03/01 A3033 RMK A01 T00260010  RH  089%=      5-min Rain = 0
KMC1 090534Z 31005KT 03/01 A3033 RMK A01 T00260010  RH  090%=      5-min Rain = 0
KMC1 090535Z 33006KT 03/01 A3033 RMK A01 T00260011  RH  090%=      5-min Rain = 0
KMC1 090536Z 30005KT 03/01 A3033 RMK A01 T00260010  RH  089%=      5-min Rain = 0
KMC1 090537Z 30009KT 03/01 A3033 RMK A01 T00260010  RH  090%=      5-min Rain = 0
KMC1 090538Z 32007KT 03/01 A3033 RMK A01 T00260010  RH  090%=      5-min Rain = 0
KMC1 090539Z 31009KT 03/01 A3033 RMK A01 T00260010  RH  089%=      5-min Rain = 0
KMC1 090540Z 31009KT 03/01 A3033 RMK A01 T00260010  RH  089%=      5-min Rain = 0
KMC1 090541Z 31007KT 03/01 A3033 RMK A01 T00260009  RH  089%=      5-min Rain = 0
KMC1 090542Z 32007KT 03/01 A3033 RMK A01 T00260010  RH  089%=      5-min Rain = 0
KMC1 090543Z 32008KT 03/01 A3033 RMK A01 T00260009  RH  089%=      5-min Rain = 0
KMC1 090544Z 32008KT 03/01 A3033 RMK A01 T00260009  RH  089%=      5-min Rain = 0
KMC1 090545Z 33007KT 03/01 A3033 RMK A01 T00260009  RH  089%=      5-min Rain = 0
KMC1 090546Z 33007KT 03/01 A3033 RMK A01 T00260009  RH  089%=      5-min Rain = 0
KMC1 090547Z 32006KT 03/01 A3033 RMK A01 T00260009  RH  089%=      5-min Rain = 0
KMC1 090548Z 32005KT 03/01 A3033 RMK A01 T00260009  RH  089%=      5-min Rain = 0
KMC1 090549Z 33005KT 03/01 A3033 RMK A01 T00260009  RH  089%=      5-min Rain = 0
KMC1 090550Z 33005KT 03/01 A3033 RMK A01 T00260009  RH  089%=      5-min Rain = 0
KMC1 090551Z 31003KT 03/01 A3033 RMK A01 T00260009  RH  089%=      5-min Rain = 0
KMC1 090552Z 34004KT 03/01 A3033 RMK A01 T00260010  RH  089%=      5-min Rain = 0
KMC1 090553Z 34004KT 03/01 A3032 RMK A01 T00260010  RH  089%=      5-min Rain = 0
KMC1 090554Z 33005KT 03/01 A3032 RMK A01 T00260010  RH  089%=      5-min Rain = 0
KMC1 090555Z 34004KT 03/01 A3032 RMK A01 T00260010  RH  089%=      5-min Rain = 0
KMC1 090556Z 34004KT 03/01 A3032 RMK A01 T00250010  RH  089%=      5-min Rain = 0
KMC1 090557Z 34004KT 03/01 A3032 RMK A01 T00250010  RH  089%=      5-min Rain = 0
KMC1 090558Z 33003KT 03/01 A3032 RMK A01 T00250010  RH  090%=      5-min Rain = 0
KMC1 090559Z 33003KT 03/01 A3032 RMK A01 T00250010  RH  090%=      5-min Rain = 0

Page generated in 0.0708 seconds.